GFSNE_sfc_30mbdewp_000.txt.gz
Dewpoint
47 49 52 53 54 55 56 55 53 50 49 52 52 53 51 51 51 51 50 50 51 52 53 53 54 55 55 56 57 57 56 55 52 49 47 45 43 41
44 45 46 48 50 52 54 55 54 53 50 51 52 54 54 52 52 51 52 51 51 52 53 53 53 54 55 55 56 56 55 52 49 47 46 43 41 38
44 43 46 47 48 50 51 52 52 52 50 49 51 53 55 54 52 52 51 51 51 51 52 53 54 54 55 55 55 54 51 49 47 46 44 42 38 38
38 42 44 46 47 48 49 49 49 50 50 48 50 51 52 54 54 52 51 51 51 50 51 52 54 54 54 54 53 51 49 47 46 44 42 39 38 38
39 42 44 45 43 44 46 46 47 48 49 49 48 50 51 52 51 50 50 50 50 50 50 52 53 54 53 53 51 49 47 46 44 42 39 37 36 36
43 44 41 37 38 42 44 44 45 46 47 47 48 47 48 50 50 50 48 44 45 45 47 49 51 53 53 51 49 48 46 44 42 40 37 36 35 34
36 32 34 35 39 43 36 35 41 43 43 44 45 47 48 47 46 47 47 48 44 47 44 45 49 50 50 50 47 45 44 42 41 40 37 34 34 33
27 26 32 32 38 31 31 36 40 41 42 43 43 43 44 46 48 48 48 46 43 43 43 43 45 44 45 46 44 44 42 41 40 37 35 33 33 32
22 22 25 32 32 26 30 34 34 37 40 41 41 41 42 44 48 48 47 47 46 40 41 39 38 39 38 40 42 41 41 39 37 35 33 33 32 32
23 23 29 32 30 31 32 32 33 35 37 39 40 40 41 43 45 45 46 46 38 37 39 36 34 35 34 37 41 40 38 36 35 33 33 32 31 31
23 25 30 30 31 31 31 32 34 35 38 40 41 42 43 43 44 44 42 40 38 33 33 31 30 29 31 32 35 37 36 35 32 31 31 31 31 30
23 26 30 29 29 29 30 32 34 36 38 38 39 41 42 43 41 40 41 40 38 31 31 31 28 28 27 28 30 31 34 31 29 30 30 31 31 30
25 27 27 27 27 29 31 34 35 36 36 35 37 39 41 35 34 34 35 39 37 33 32 31 28 26 26 23 25 26 20 21 24 27 29 30 29 29
27 26 26 27 30 32 32 34 34 34 33 32 33 34 33 32 32 32 32 32 33 33 33 31 27 25 23 22 20 18 17 18 18 18 18 20 25 26
25 27 24 29 27 27 28 31 32 32 31 31 31 32 33 31 29 28 29 28 27 27 27 28 27 26 25 19 17 16 16 18 18 17 18 18 17 19
28 23 26 23 23 24 26 28 30 31 31 31 31 32 31 28 27 27 27 27 25 23 25 26 25 23 19 19 18 18 17 13 19 19 19 19 19 18
20 23 23 22 22 24 25 27 29 30 30 31 30 29 29 26 25 26 26 25 23 22 22 23 24 22 20 19 15 16 17 17 19 19 19 17 17 18
20 21 21 20 22 23 24 26 27 29 30 30 29 28 27 25 24 25 26 25 22 22 21 22 22 17 12 15 21 18 19 18 19 19 19 18 17 17
19 22 20 20 22 23 23 26 26 28 30 29 27 27 26 25 26 24 25 24 23 21 20 20 17 9 -3 -7 10 23 18 19 20 19 19 18 17 17
19 21 19 20 21 23 23 23 25 28 28 28 27 26 25 25 24 24 24 23 21 20 19 16 15 10 5 2 8 11 22 22 18 12 13 17 19 20
20 19 19 19 21 24 21 23 24 27 28 27 26 25 25 25 24 24 25 23 21 19 18 17 17 18 12 13 11 10 13 18 18 15 18 18 19 21
20 19 19 20 24 21 21 22 24 27 27 26 25 25 25 25 24 24 23 22 19 18 17 15 13 15 15 13 10 12 15 17 20 22 23 22 22 20
20 21 19 21 23 21 21 22 24 26 27 25 25 25 25 24 23 22 21 19 17 15 12 12 12 11 13 13 15 16 16 17 19 20 22 25 26 26

GFSNE_sfc_30mbdewp_003.txt.gz
Dewpoint
43 44 45 43 46 48 49 50 48 46 45 46 47 50 53 54 55 54 53 53 53 52 54 55 54 55 54 55 56 56 57 56 56 57 57 55 53 51
38 38 39 41 45 47 48 48 48 47 44 45 47 48 51 52 54 54 53 52 53 53 53 54 54 54 54 54 55 56 56 56 56 57 57 54 52 50
35 37 38 41 44 43 43 43 43 45 43 44 45 46 48 49 51 54 53 53 53 53 54 54 54 54 54 54 54 55 55 55 55 56 56 54 51 49
35 35 38 42 39 40 37 39 42 43 43 42 43 44 45 47 49 51 53 53 52 52 52 53 53 54 54 55 54 55 55 55 55 55 55 53 51 49
30 33 41 34 36 33 35 41 37 32 36 38 42 43 44 46 48 49 51 52 52 51 51 52 52 53 54 54 54 54 54 55 54 53 52 51 50 46
33 38 29 29 30 32 36 32 29 33 36 37 37 40 41 43 45 47 48 48 48 48 48 48 49 51 53 52 53 54 54 53 52 51 50 49 46 44
18 21 21 23 23 29 35 32 30 32 34 33 34 36 37 38 40 42 44 46 48 47 46 46 46 47 49 51 52 53 52 51 50 49 47 45 44 42
13 16 23 22 22 31 31 31 32 32 32 32 33 34 35 37 39 40 41 41 41 45 45 45 44 45 47 50 51 51 48 48 47 46 45 43 41 40
20 22 22 23 27 31 30 31 32 31 31 32 34 36 36 37 38 38 37 40 42 44 43 42 41 42 42 45 49 48 47 46 45 44 43 41 39 38
21 22 23 24 28 27 27 27 29 29 30 33 36 38 38 39 41 41 41 41 42 43 41 39 39 39 36 39 46 45 43 42 42 41 40 39 39 38
23 23 26 25 26 25 25 26 27 27 30 36 36 36 36 36 39 41 40 39 38 40 37 38 32 31 32 35 42 42 41 41 40 39 39 39 36 35
27 28 26 25 24 25 25 27 31 33 35 34 33 34 33 35 37 37 36 33 34 35 34 34 29 28 28 29 32 38 37 37 37 38 39 37 35 32
30 25 25 25 27 23 25 29 31 30 32 32 31 31 31 32 34 35 34 32 31 32 36 34 29 28 27 24 26 28 31 33 35 37 34 33 32 32
24 25 26 24 21 22 22 21 23 26 29 30 30 30 30 31 32 32 30 30 30 29 33 33 28 27 24 22 22 24 24 26 27 24 26 30 32 33
26 28 21 20 21 20 21 22 25 27 30 29 28 29 31 31 31 28 29 29 27 26 26 28 28 27 26 22 21 21 22 21 18 20 19 22 23 23
31 21 18 19 20 19 21 23 25 25 26 28 28 30 30 29 28 28 26 26 24 23 25 26 25 25 22 22 23 22 21 20 19 18 18 17 18 18
21 17 16 19 19 19 19 21 22 23 24 25 28 28 27 27 27 27 26 26 23 21 21 23 24 23 22 21 20 20 18 18 19 19 18 17 18 18
17 17 18 19 18 18 19 20 21 21 22 25 27 27 26 26 26 25 26 24 22 22 21 22 21 20 15 18 20 17 17 18 19 19 18 16 16 17
18 19 19 18 18 18 19 21 21 20 23 24 27 27 26 25 25 24 25 24 22 21 20 19 16 7 -2 -2 12 21 17 18 18 19 19 18 17 18
20 20 18 18 18 18 19 21 20 21 22 24 26 26 25 24 24 24 24 22 21 19 18 16 13 13 3 2 4 15 21 20 19 17 15 18 19 20
20 18 18 19 19 19 21 20 20 20 23 23 26 25 24 24 24 24 25 23 21 19 17 17 15 17 12 11 10 10 13 21 21 15 15 16 19 21
18 18 19 19 19 19 21 20 20 20 22 23 25 25 25 25 24 24 23 21 19 18 17 14 13 14 14 10 10 12 15 18 20 23 21 22 21 19
18 19 20 19 19 20 20 20 20 20 21 25 25 24 24 23 23 22 20 18 17 14 12 12 11 11 13 13 15 15 16 17 20 21 24 26 25 27

GFSNE_sfc_30mbdewp_006.txt.gz
Dewpoint
40 37 37 38 40 42 45 45 42 38 37 38 40 43 46 48 49 50 51 53 54 55 55 54 55 55 56 58 57 57 57 57 56 57 58 58 57 58
28 30 35 36 38 43 43 41 39 38 36 35 37 40 42 44 45 47 48 49 52 53 54 54 54 54 55 56 57 56 56 56 56 57 57 58 57 57
24 25 30 33 39 36 38 35 33 37 38 36 29 28 33 39 44 46 46 48 50 52 53 53 54 54 54 55 56 56 56 56 56 56 56 56 56 57
24 29 32 35 30 33 32 27 32 36 30 30 30 31 35 36 38 41 43 45 48 50 51 52 54 54 54 54 54 55 55 56 56 56 56 55 56 58
28 22 17 24 22 22 22 25 31 33 32 31 31 33 33 33 37 38 38 39 44 48 50 52 51 52 53 53 53 53 54 55 55 55 56 56 56 57
22 17 15 17 21 24 22 25 32 32 31 31 31 31 31 33 34 34 34 37 38 41 44 46 49 50 50 51 52 52 53 54 54 54 55 55 55 56
19 18 20 22 23 23 25 27 28 28 28 30 31 29 29 30 31 33 35 37 38 38 40 42 46 47 47 48 48 50 50 50 52 53 54 55 55 55
20 20 21 22 23 26 26 25 26 25 24 25 28 27 27 28 33 35 36 35 34 37 40 41 43 44 45 45 47 48 49 50 51 52 53 54 52 51
22 22 22 23 25 26 26 25 26 26 25 25 25 27 28 31 36 34 33 34 33 35 37 37 40 41 42 43 45 47 48 49 51 52 51 49 48 47
22 23 24 28 27 25 24 28 31 25 25 28 30 33 33 36 32 33 34 35 37 39 40 38 40 40 40 39 41 43 46 48 50 49 47 45 44 43
23 24 29 27 24 24 28 27 23 28 26 27 29 30 31 30 31 33 32 32 30 32 36 37 38 36 32 34 37 42 47 47 46 44 43 42 42 41
24 30 26 22 23 26 21 22 24 21 22 26 29 30 29 29 30 33 33 30 29 28 34 34 33 31 31 29 32 39 43 44 43 42 42 41 40 38
29 22 22 24 29 20 19 21 21 21 26 26 26 28 28 30 32 33 33 31 28 27 30 33 31 30 30 27 27 29 35 38 38 39 39 39 39 37
22 20 24 29 19 18 20 19 20 21 23 24 24 25 27 26 29 29 30 31 29 27 27 26 27 30 26 24 25 25 27 30 32 34 37 39 39 37
21 26 25 18 16 19 18 18 18 20 21 23 23 24 25 26 30 27 29 29 28 27 25 25 28 27 26 25 22 22 24 25 29 30 32 32 32 35
28 28 19 16 17 18 17 18 18 19 21 23 23 23 24 26 27 27 27 26 25 24 25 26 24 25 23 24 25 23 24 24 24 26 27 24 24 26
20 17 16 17 17 17 17 17 17 18 22 22 21 21 22 26 26 25 26 25 23 22 21 23 24 24 24 24 22 22 22 22 23 22 22 20 18 18
13 14 18 17 16 16 17 17 17 18 20 20 20 21 22 25 24 25 26 24 22 21 21 21 20 20 20 22 24 20 20 20 21 19 17 16 15 18
15 21 19 16 16 16 18 18 17 19 21 21 21 22 22 25 24 24 24 24 21 20 19 19 16 14 6 10 18 22 19 19 18 18 17 16 15 16
19 18 16 16 17 18 18 17 18 20 20 21 21 21 24 24 23 23 24 22 20 20 18 17 16 15 7 5 12 18 21 18 18 18 18 19 19 20
16 17 17 17 19 19 18 18 19 20 21 20 20 21 24 24 23 24 24 23 21 19 16 15 14 17 12 11 10 11 15 22 18 15 15 16 18 20
17 18 18 18 19 18 18 19 19 19 19 20 21 24 24 24 23 23 22 21 20 19 16 14 13 13 12 11 12 13 16 19 21 21 21 22 19 19
18 18 18 18 18 18 19 19 19 19 20 20 21 24 23 22 22 21 20 19 17 14 12 12 12 12 14 15 15 16 16 18 20 21 23 24 26 29

GFSNE_sfc_30mbdewp_009.txt.gz
Dewpoint
28 26 25 26 33 35 38 39 34 33 29 25 26 29 37 33 31 31 35 42 46 48 50 50 52 53 54 55 55 56 56 57 59 59 59 58 58 58
22 21 26 29 32 35 31 30 33 29 27 26 27 34 32 30 29 33 33 35 39 43 45 46 49 51 52 53 53 55 56 56 57 58 58 59 58 58
21 23 27 25 20 22 27 26 25 23 25 26 32 33 29 28 31 33 33 33 40 42 43 43 43 48 51 52 53 54 55 55 56 57 58 58 58 58
21 25 23 18 18 18 20 22 24 25 26 29 32 29 28 31 32 33 32 35 36 36 37 43 41 42 46 49 51 52 54 54 55 55 57 57 57 58
20 23 19 18 19 20 22 24 26 26 28 28 28 28 29 30 30 31 32 33 35 36 36 38 41 40 42 43 47 52 53 53 54 54 54 55 56 56
20 20 19 20 20 23 24 26 25 26 27 27 27 25 26 27 28 26 28 29 32 35 38 39 38 39 42 45 47 50 50 51 52 52 53 54 55 54
20 20 21 22 23 24 25 26 27 26 26 25 25 26 25 24 25 26 28 29 32 37 35 37 38 40 42 40 45 47 48 48 49 50 51 53 53 53
21 22 21 22 23 25 26 26 25 26 27 29 25 24 24 27 28 29 29 30 31 32 33 33 35 36 39 39 41 44 45 46 47 48 49 50 51 51
20 21 22 22 25 28 27 24 30 27 23 23 24 27 24 26 31 31 31 30 29 31 33 32 36 37 39 40 41 43 44 45 44 46 48 49 50 51
20 21 22 24 28 23 23 31 23 20 22 24 22 23 26 28 27 29 29 31 31 30 32 30 33 32 38 42 43 42 41 42 43 44 46 48 49 51
21 22 26 25 21 22 31 22 21 21 20 21 22 23 23 24 26 29 29 29 25 27 30 30 32 35 37 36 37 37 38 40 41 43 45 49 48 47
23 26 23 20 21 31 21 19 20 20 22 21 22 22 24 25 26 27 31 27 27 25 29 29 29 29 30 33 32 32 33 46 45 47 45 44 42 41
26 22 20 21 32 24 18 17 19 20 20 19 21 22 23 23 26 27 31 30 27 26 28 29 27 26 28 29 30 30 31 39 43 43 43 41 39 38
21 20 23 31 20 18 16 17 18 18 18 19 20 21 22 23 23 25 26 30 31 29 31 27 24 24 26 28 28 28 28 31 37 37 38 39 39 38
22 26 18 15 16 16 16 16 17 18 18 19 20 21 21 22 23 24 26 30 28 29 29 26 24 24 26 27 26 26 27 28 32 34 36 36 35 36
26 16 14 14 17 17 15 16 17 18 18 20 20 22 21 21 22 23 26 26 26 25 27 26 25 25 26 28 27 26 27 27 28 29 29 31 35 36
15 14 13 18 16 15 15 16 17 17 18 19 20 20 20 20 21 23 26 26 24 24 23 24 26 26 26 27 24 25 25 25 26 27 27 25 26 31
14 13 16 17 15 15 15 16 17 17 18 19 20 20 20 21 22 25 26 25 23 22 21 22 22 23 23 24 26 23 23 22 24 26 27 24 23 25
14 16 16 16 16 16 16 17 17 18 19 20 20 21 21 21 22 24 25 24 21 21 19 19 18 16 19 17 22 25 22 22 23 23 23 21 22 21
15 16 16 16 16 16 17 18 18 19 19 20 20 20 21 22 23 24 24 22 21 21 19 18 17 16 17 17 18 20 22 20 19 18 17 18 20 20
17 16 16 16 17 17 17 18 19 19 20 19 20 20 21 23 23 23 23 23 21 20 17 16 15 18 15 15 16 17 21 20 18 18 18 17 17 18
16 17 17 17 17 17 18 19 18 19 19 19 20 21 23 23 22 22 21 20 19 18 16 16 15 17 17 17 15 16 18 21 20 20 22 22 21 19
17 17 17 17 17 17 18 18 18 18 19 20 20 21 23 21 20 18 16 15 16 15 16 16 18 19 17 19 19 19 20 21 22 22 24 28 29 30

GFSNE_sfc_30mbdewp_012.txt.gz
Dewpoint
15 19 18 19 22 24 25 25 25 25 25 25 22 18 16 19 25 31 30 29 29 31 32 32 38 43 46 46 47 48 51 53 54 55 56 57 57 56
14 16 18 19 23 21 18 16 19 20 20 20 20 21 21 26 29 27 25 30 32 32 30 34 38 38 41 42 44 48 49 52 53 53 54 55 56 56
15 16 17 19 20 17 17 17 17 18 20 22 24 23 22 22 22 23 26 27 27 27 29 34 34 38 40 44 42 45 47 49 50 51 53 54 55 56
15 15 16 16 17 17 17 17 19 20 22 24 23 22 23 24 25 23 23 23 25 25 26 28 31 36 39 41 44 41 43 44 48 51 53 53 54 55
16 16 16 17 17 17 18 19 21 21 25 24 24 25 25 24 24 25 24 22 24 27 27 27 31 35 37 40 40 40 42 45 47 50 52 53 53 54
17 18 18 18 17 19 20 21 23 24 23 24 25 25 25 24 23 22 23 26 27 28 29 31 32 36 34 36 39 41 44 43 47 50 50 51 52 53
18 17 17 18 20 21 22 24 26 24 24 26 26 24 21 20 21 23 23 24 27 28 32 31 31 33 34 33 35 38 40 41 46 47 47 48 49 49
17 16 16 17 18 22 23 24 22 25 28 28 26 22 20 21 22 22 24 25 24 27 27 29 29 31 33 33 34 38 40 41 43 45 45 46 46 48
16 16 16 16 21 23 23 21 25 28 24 21 22 21 20 22 24 25 27 25 25 26 28 28 31 31 32 33 33 34 39 42 43 44 45 44 44 45
16 16 17 21 22 21 20 26 28 21 19 18 19 22 26 25 23 23 26 28 29 29 29 29 30 29 31 34 36 37 39 41 41 42 43 43 43 44
16 17 22 21 19 19 29 29 22 20 16 19 22 21 19 20 22 26 26 26 24 26 27 29 29 30 32 29 32 36 37 38 39 40 40 41 43 44
19 22 19 18 20 25 24 18 23 18 20 22 19 18 19 21 21 24 27 25 24 23 25 28 26 28 25 30 33 33 33 33 37 44 45 43 44 45
25 20 19 20 22 18 16 18 18 18 19 18 18 19 20 21 22 24 25 25 24 23 25 29 27 27 25 25 27 31 32 33 38 43 44 44 43 43
21 21 22 21 16 15 17 18 16 17 17 18 19 19 20 21 23 23 24 25 26 26 27 31 27 26 24 23 23 28 31 31 37 38 39 40 41 41
20 24 19 15 14 16 17 15 15 17 18 19 20 20 20 21 23 23 24 25 26 28 31 31 27 25 25 23 23 29 29 30 33 35 35 35 36 38
26 22 14 13 13 14 14 14 16 17 18 20 21 21 21 21 22 22 24 24 25 27 31 28 27 26 24 25 27 29 30 28 30 32 33 33 34 35
19 15 12 12 14 14 14 15 16 17 19 20 21 20 20 21 22 23 24 25 25 25 24 26 27 27 28 27 27 29 28 27 29 30 31 29 32 33
15 13 13 15 15 15 15 15 17 18 20 21 20 20 21 21 21 23 25 26 23 22 22 22 23 24 26 25 27 26 26 26 28 30 30 28 28 33
13 15 15 15 15 15 16 16 18 20 21 20 20 21 21 21 22 25 25 24 23 22 21 20 19 19 21 18 23 27 25 26 27 26 27 26 25 29
15 16 15 15 15 16 16 18 19 19 19 20 20 20 21 21 23 23 24 24 22 20 19 18 18 17 19 20 19 23 27 26 25 23 24 25 27 30
15 15 15 16 16 17 18 19 19 19 20 20 20 20 21 23 22 22 21 20 20 19 16 17 18 19 18 20 20 21 23 23 24 23 24 23 21 19
15 16 16 17 17 18 19 19 19 19 19 19 20 21 22 23 21 18 15 14 16 16 17 19 21 21 21 18 17 19 19 21 25 26 25 24 18 15
17 17 17 17 18 19 19 19 18 18 19 20 21 22 23 21 18 15 14 19 22 22 22 22 23 21 21 20 19 19 20 20 21 24 26 29 29 25

GFSNE_sfc_30mbdewp_015.txt.gz
Dewpoint
15 17 17 18 20 21 22 25 21 18 17 17 18 19 22 21 24 24 25 23 24 26 26 28 31 33 31 33 38 39 37 39 40 43 48 50 51 53
13 15 16 17 18 20 21 21 20 19 18 19 19 21 22 24 23 25 25 28 25 25 24 27 28 29 29 32 34 35 35 39 43 42 44 47 51 52
14 15 16 17 17 18 19 20 20 20 19 19 21 23 25 23 24 25 25 26 25 24 23 24 24 27 28 30 32 33 35 38 40 42 42 46 50 51
14 15 16 16 18 20 19 19 20 20 20 20 22 23 23 24 24 25 23 22 22 24 23 22 26 29 28 30 33 37 38 39 41 39 40 42 45 50
16 17 17 18 19 19 19 20 20 21 23 24 23 24 24 25 25 24 20 20 21 23 24 22 22 27 29 32 33 35 37 39 40 39 44 46 46 48
18 18 18 18 17 19 19 21 23 24 25 25 23 24 25 25 24 21 19 19 21 21 22 24 25 25 30 30 32 31 34 35 34 37 42 42 47 49
19 18 17 18 18 18 19 22 24 27 24 24 26 26 24 21 20 20 19 21 22 23 24 25 26 28 28 27 28 31 33 33 33 37 41 42 45 48
18 17 16 17 16 18 21 22 22 21 23 25 28 26 21 20 18 20 22 24 22 23 23 23 25 26 27 29 30 31 31 32 34 35 37 40 44 45
17 16 16 15 19 22 22 22 23 25 29 23 22 22 17 19 24 25 25 21 20 21 25 24 28 28 31 28 27 28 32 35 35 36 39 42 44 45
16 16 17 20 23 21 23 28 28 26 20 21 19 18 20 24 24 20 21 26 26 26 25 26 27 29 27 29 27 30 28 34 37 40 40 42 44 44
17 18 20 21 20 23 26 25 19 18 21 20 20 19 19 19 19 21 24 23 21 22 23 23 25 26 26 28 28 30 34 30 34 35 34 37 39 41
20 24 21 19 21 26 21 17 18 20 23 21 19 17 18 19 19 21 24 22 22 20 21 22 23 25 24 25 29 28 28 31 33 36 37 39 40 41
25 21 21 20 23 20 16 16 18 21 19 17 17 18 19 20 21 22 22 24 22 21 22 23 24 25 25 25 26 28 27 33 32 33 44 45 44 43
22 20 21 27 17 15 15 15 16 17 16 17 18 19 19 20 21 22 22 23 24 24 25 26 25 25 25 23 21 24 25 32 31 34 37 42 44 45
19 21 28 16 14 14 14 15 15 16 17 20 21 20 20 21 22 22 24 25 25 25 27 28 28 28 25 22 22 22 26 30 31 32 33 34 36 39
25 27 15 13 13 14 14 15 16 16 17 19 20 21 20 20 21 23 23 23 24 24 30 28 27 26 24 24 25 24 29 27 30 31 32 32 34 36
20 16 14 13 14 15 14 15 15 17 20 20 20 20 20 21 21 22 23 25 24 23 23 24 26 27 27 27 26 28 28 28 30 31 32 31 31 34
15 14 14 15 15 14 14 15 17 18 20 20 20 20 20 20 20 23 25 25 24 23 22 21 22 21 25 26 28 26 27 28 30 31 32 31 30 34
14 15 15 15 15 15 16 17 19 19 20 20 20 20 20 21 21 23 24 25 24 22 22 21 20 18 21 18 23 28 26 27 28 27 28 29 30 32
15 16 15 15 15 16 18 19 19 19 19 19 20 19 20 21 21 22 21 20 20 21 20 20 18 18 17 18 20 24 30 27 26 25 26 29 32 35
16 16 16 16 16 19 20 20 19 19 20 19 19 20 21 22 22 21 20 17 19 19 19 20 21 21 20 23 21 22 26 30 29 27 27 25 25 28
16 16 16 17 19 20 20 19 19 18 18 19 20 21 22 23 23 22 22 21 22 23 23 24 23 23 22 21 20 21 24 27 30 31 30 27 23 22
16 16 17 19 20 20 19 19 18 18 19 20 21 22 23 22 23 23 23 23 24 24 23 24 23 23 22 21 20 21 22 24 26 26 28 27 25 22

GFSNE_sfc_30mbdewp_018.txt.gz
Dewpoint
13 15 15 17 18 20 20 19 20 18 18 18 18 19 20 20 21 25 23 23 24 24 25 27 28 28 27 29 29 28 28 31 32 36 39 37 39 46
11 13 15 16 18 18 20 20 20 19 18 19 20 20 19 21 23 23 23 25 25 26 25 23 23 24 25 26 27 25 27 30 31 33 35 36 37 44
12 14 16 17 17 19 19 21 20 20 20 20 19 19 22 23 22 23 24 25 25 25 22 22 22 22 23 25 28 28 30 30 31 31 35 36 37 43
15 17 17 18 19 19 20 19 20 20 19 18 22 24 23 23 23 24 25 24 25 22 21 20 20 21 25 24 23 24 28 29 31 35 35 38 40 41
18 19 20 19 19 19 19 18 19 20 23 25 23 25 24 24 24 25 24 22 20 19 18 20 21 23 23 24 26 27 28 31 35 34 32 38 37 37
20 20 20 20 18 18 18 19 20 23 23 24 25 27 24 25 28 25 20 18 17 19 21 23 23 22 23 23 24 26 27 28 28 30 32 35 36 39
20 20 20 19 19 18 18 21 22 21 28 28 27 24 24 22 21 20 17 17 20 21 23 20 20 21 23 25 25 27 28 29 31 34 35 33 35 36
20 20 18 17 17 19 20 20 22 26 25 27 24 20 17 18 21 20 19 20 21 22 18 20 22 23 25 25 28 28 34 29 27 29 31 33 33 37
19 18 17 17 19 20 22 25 31 28 24 19 17 17 21 25 24 22 24 24 22 20 22 22 23 24 26 24 24 27 30 32 28 28 33 33 33 33
19 19 19 19 22 22 23 28 29 22 20 19 18 21 24 21 19 19 20 22 23 22 22 21 24 21 22 24 25 25 26 28 33 36 35 37 39 39
19 20 22 22 22 22 25 28 20 21 19 19 25 22 18 17 18 19 22 21 19 19 20 21 22 21 21 23 25 26 33 31 27 27 30 32 35 36
21 24 24 21 19 25 23 18 20 16 20 25 17 15 17 18 19 20 22 20 19 18 18 19 21 22 20 22 25 26 28 29 27 31 32 33 35 35
25 24 23 19 27 23 17 16 16 19 19 15 15 17 19 21 21 21 22 23 20 19 20 22 23 22 22 22 23 28 26 26 28 30 33 34 37 37
23 21 20 25 19 16 16 15 17 16 15 16 17 20 19 19 20 20 21 22 23 23 25 26 23 23 23 22 20 21 22 26 29 31 31 36 45 42
21 22 27 19 15 14 14 15 15 15 16 19 20 19 20 21 21 22 23 23 23 24 27 27 27 26 24 21 21 22 24 25 30 31 32 34 35 38
24 27 18 14 13 15 15 15 15 16 18 20 20 20 20 20 20 22 21 22 23 25 26 26 24 24 23 23 24 23 25 26 30 31 32 32 35 38
20 17 13 13 15 14 14 15 16 17 21 20 20 19 19 20 20 21 22 23 23 24 23 23 22 23 24 24 23 26 27 28 31 31 32 32 32 36
15 13 14 15 15 15 15 17 18 19 20 20 19 19 19 19 19 21 22 21 20 21 22 22 20 18 23 25 27 25 27 27 29 31 32 31 31 33
13 15 16 16 16 15 17 19 19 20 21 19 19 19 19 19 19 20 22 21 20 21 21 22 20 18 18 17 23 30 26 27 30 30 31 32 32 33
15 17 16 15 16 18 19 19 19 19 19 19 19 18 19 20 20 20 22 21 21 22 21 22 21 20 17 17 19 26 30 27 28 28 30 32 34 37
16 16 15 16 18 19 19 19 19 18 19 18 18 19 20 20 20 22 22 22 22 21 21 22 23 27 24 24 23 24 27 31 31 27 28 28 30 31
15 15 16 18 19 19 19 19 18 18 18 19 19 20 21 22 21 21 22 22 22 23 23 23 23 23 24 22 21 23 25 28 31 31 32 27 25 26
15 17 18 19 19 19 19 18 18 18 18 19 20 21 22 22 21 22 23 24 23 24 24 23 22 21 22 24 23 24 25 26 27 25 26 34 34 34

GFSNE_sfc_30mbdewp_021.txt.gz
Dewpoint
13 15 14 14 17 20 21 20 19 18 17 18 19 19 21 20 19 21 23 23 23 24 25 25 26 27 28 26 26 26 27 28 28 31 30 30 32 32
13 14 15 16 18 19 20 21 20 20 20 19 19 19 19 20 22 23 22 23 24 24 24 25 25 28 24 26 24 26 24 26 28 28 32 33 35 37
15 16 18 19 20 20 20 21 21 21 19 19 19 19 21 23 22 23 24 24 24 25 25 26 23 22 22 21 22 23 26 27 28 28 27 31 35 36
17 19 19 20 20 21 21 21 20 19 19 18 20 24 24 23 24 25 23 25 28 28 23 21 20 20 20 22 22 24 26 24 26 28 29 27 30 36
19 20 20 20 21 21 20 19 19 20 22 25 25 22 24 27 28 29 23 22 22 20 19 18 18 20 22 25 23 22 23 25 26 26 27 31 37 36
20 21 20 21 21 20 19 19 20 21 21 21 23 27 24 25 25 17 15 18 20 19 19 20 22 24 21 20 21 23 24 25 26 27 26 30 31 32
20 20 20 21 20 19 19 19 20 21 26 28 26 26 20 17 15 16 18 25 21 21 21 24 22 19 20 22 22 23 25 26 30 32 31 30 33 32
20 19 20 20 19 20 21 21 22 23 26 27 25 20 17 17 18 21 23 22 20 21 20 20 20 20 21 22 22 24 25 22 24 28 32 31 30 30
19 20 19 19 21 22 23 23 25 27 29 22 19 19 19 19 25 25 21 20 20 21 21 20 20 20 22 20 23 22 22 25 27 28 28 28 28 27
19 19 20 21 24 23 22 23 29 27 22 21 20 19 25 24 18 18 20 22 22 21 19 18 19 18 19 20 22 22 25 27 30 30 31 34 34 33
20 20 23 23 23 19 22 28 25 23 18 19 25 22 17 17 18 21 22 20 17 17 18 18 19 19 20 20 21 23 24 26 27 27 27 27 28 28
22 25 23 20 18 25 25 21 19 15 21 23 15 15 17 18 20 20 22 19 18 17 16 19 20 20 19 20 22 24 24 25 26 29 28 28 29 30
25 23 21 19 29 19 18 15 15 19 18 14 15 16 18 19 18 20 23 22 19 18 19 22 22 21 21 20 21 23 24 26 25 27 30 32 32 32
22 20 20 29 17 16 15 16 17 17 15 16 17 18 18 19 20 22 22 23 24 23 24 25 23 22 21 20 19 20 22 26 28 27 29 32 34 35
21 24 23 17 14 14 15 16 16 15 18 19 19 18 19 21 22 22 22 22 22 24 26 27 26 23 21 19 20 21 24 25 28 30 31 31 35 39
25 21 16 13 14 15 15 15 16 18 20 20 19 19 20 20 20 21 21 21 22 21 22 25 27 23 20 20 22 21 25 24 28 31 31 32 36 38
18 14 12 14 15 14 14 15 17 18 19 19 19 19 19 19 19 20 21 21 21 20 21 23 23 21 21 21 20 24 25 27 30 31 32 32 33 37
15 13 14 16 15 15 15 17 17 18 19 19 19 18 19 19 18 20 20 21 21 21 21 23 22 19 20 22 28 25 27 27 31 32 33 31 31 35
14 15 16 15 15 16 17 18 17 18 19 18 18 19 18 18 18 19 20 21 21 22 22 23 22 19 17 16 22 31 26 28 31 31 32 31 31 32
15 16 15 15 16 18 18 18 18 18 17 19 19 18 19 19 19 19 21 21 22 22 21 22 22 23 19 18 18 26 31 29 28 29 31 32 34 36
15 15 15 17 18 18 18 18 18 17 19 18 18 19 19 19 19 20 20 22 23 22 21 21 23 28 26 25 23 25 28 31 33 30 30 31 30 31
14 15 17 17 18 18 18 17 17 17 17 17 18 19 20 21 21 21 21 21 22 23 23 22 23 25 24 23 23 24 26 29 33 34 35 33 29 28
16 17 17 18 18 18 17 17 17 17 17 18 18 20 21 22 24 23 22 23 23 23 23 22 21 22 24 24 24 24 24 26 29 29 31 34 34 34

GFSNE_sfc_30mbdewp_024.txt.gz
Dewpoint
13 15 15 16 18 19 20 21 20 18 17 18 19 19 20 21 20 20 21 23 24 24 24 24 26 26 26 27 28 29 32 30 32 30 29 29 29 31
14 15 17 19 19 21 21 21 21 21 19 20 19 19 19 20 21 23 24 24 24 25 24 24 26 27 29 30 29 26 26 27 25 25 26 28 26 31
15 17 19 20 20 21 21 22 22 21 20 20 20 21 22 24 23 24 24 25 27 27 23 21 21 21 23 24 24 23 22 23 26 29 29 30 31 33
16 18 19 19 20 21 22 21 21 21 20 21 25 24 21 21 22 26 28 24 26 19 18 19 22 20 20 21 21 22 24 26 28 31 30 29 29 30
17 18 20 20 20 21 21 21 21 21 21 20 20 20 21 25 27 24 18 16 15 16 18 19 20 20 21 24 26 26 29 23 22 23 24 25 26 30
18 20 20 20 20 21 21 20 21 20 21 21 23 26 25 28 21 17 15 17 16 18 25 21 22 21 21 22 21 21 22 23 23 24 24 27 27 26
18 19 20 21 21 21 20 21 21 24 26 27 22 23 22 18 16 17 17 18 22 24 18 18 19 19 20 20 21 21 21 22 24 25 27 30 32 33
18 19 20 21 20 21 22 22 22 22 22 23 25 19 18 18 18 19 21 22 16 18 18 19 20 19 20 20 21 21 23 23 24 27 30 27 26 28
19 19 19 20 22 24 24 22 22 24 29 22 20 19 18 20 25 23 19 19 20 20 20 19 19 18 18 18 20 21 22 23 24 27 29 29 30 31
19 19 20 23 23 21 19 25 29 24 23 19 17 20 24 20 18 19 21 23 22 19 18 17 18 18 18 19 20 21 22 23 25 27 30 32 31 30
20 20 25 23 20 20 29 24 21 18 15 19 23 19 17 18 19 23 21 19 16 15 17 18 18 18 19 20 20 22 23 24 24 25 27 29 30 34
22 26 24 20 20 27 18 17 16 15 23 22 15 15 17 17 19 20 22 18 17 16 16 18 19 20 18 19 20 22 21 23 23 27 30 30 29 30
25 22 20 23 23 17 17 16 16 20 20 15 15 17 18 18 19 21 23 22 19 18 19 22 21 21 20 20 19 19 21 23 25 27 29 31 32 33
21 21 24 22 17 16 16 17 18 18 15 17 18 18 18 19 20 21 22 23 23 22 24 24 22 23 21 20 17 17 20 22 27 27 28 29 31 32
23 22 21 16 15 15 16 17 17 16 18 19 18 18 19 20 22 21 21 21 21 22 25 26 25 24 23 19 18 18 20 22 25 28 30 31 31 31
21 19 15 14 15 16 15 15 15 16 19 19 19 19 19 19 19 21 20 20 20 20 21 24 25 25 20 19 19 18 21 23 27 30 31 32 36 36
17 14 13 14 15 14 14 15 16 17 18 18 18 18 18 18 18 19 20 21 19 20 21 22 24 24 22 21 18 21 24 27 29 31 31 31 33 35
15 13 14 15 15 15 15 16 17 17 17 18 17 17 18 18 18 19 20 20 20 21 22 23 23 21 21 21 26 25 28 27 29 32 32 30 30 33
14 15 15 15 15 15 17 17 17 17 17 17 17 18 19 17 18 18 19 20 20 23 23 23 22 22 18 18 22 30 28 30 30 31 31 31 30 31
15 15 15 15 16 17 17 17 17 17 16 17 18 17 18 18 18 18 19 20 22 23 22 23 22 23 21 20 19 24 32 31 30 30 31 33 33 34
15 15 15 16 17 17 17 17 17 17 18 17 16 17 18 19 19 20 21 22 23 22 21 21 23 28 27 26 24 25 29 33 34 31 30 30 30 30
15 16 16 17 17 17 17 16 16 16 16 16 17 18 18 20 20 21 23 21 22 22 23 22 24 25 24 24 23 24 28 31 34 34 34 33 30 27
16 16 16 16 17 16 16 16 16 16 16 17 17 18 19 19 20 25 23 23 23 23 23 21 22 24 24 24 24 25 27 28 29 30 31 34 34 34

GFSNE_sfc_30mbdewp_030.txt.gz
Dewpoint
13 14 15 16 18 20 20 20 19 16 14 15 17 19 21 22 22 22 21 23 24 24 24 24 24 26 27 25 25 24 26 30 31 29 30 33 34 34
14 14 15 17 19 20 21 21 22 20 19 18 19 20 21 21 22 21 20 22 23 24 24 25 27 26 24 22 22 23 24 26 29 30 31 31 33 35
15 15 16 18 19 20 21 21 21 22 21 20 21 21 23 22 20 21 22 22 23 27 30 23 22 21 21 22 25 27 27 28 28 29 32 32 31 34
16 17 17 18 19 20 21 21 21 21 21 21 22 22 20 21 22 24 25 27 27 25 19 19 20 20 21 22 25 26 26 26 26 26 27 28 28 29
18 18 18 19 19 20 21 21 21 22 24 23 20 21 22 23 26 25 20 17 15 16 18 19 20 21 23 25 25 25 25 26 27 27 26 27 28 30
19 19 19 19 20 21 21 21 21 20 20 21 22 23 26 23 18 15 15 16 16 18 21 22 21 21 20 20 20 20 21 22 22 23 24 25 26 25
20 19 19 21 22 22 21 21 21 21 22 25 23 21 18 16 16 16 16 18 22 20 18 18 18 18 18 20 20 20 21 22 23 24 26 27 28 29
20 20 20 21 21 23 22 22 22 25 26 22 20 17 16 16 17 18 22 19 17 19 18 21 21 19 19 19 19 20 22 23 24 24 25 27 27 28
20 20 20 20 23 22 24 24 26 25 21 19 17 17 17 19 24 23 20 20 19 20 21 20 19 17 17 17 19 20 22 23 24 24 26 28 28 28
20 20 20 21 23 23 22 29 23 20 19 18 18 20 25 22 19 20 23 23 22 19 17 17 17 17 17 18 19 21 22 23 23 25 26 27 29 29
20 20 23 23 21 21 27 22 18 18 17 19 24 21 19 20 21 23 21 19 16 16 17 17 17 17 18 19 19 21 21 22 22 24 25 25 25 26
20 21 22 21 20 27 19 18 17 16 22 24 15 15 17 18 20 19 20 18 17 15 15 18 18 19 16 17 19 19 21 22 23 25 26 28 30 31
18 20 22 21 23 19 18 17 18 22 19 15 16 16 18 18 18 19 20 21 18 17 18 21 20 19 19 18 19 20 21 22 24 25 26 29 31 31
20 22 20 21 19 17 18 19 20 19 15 16 17 17 17 18 18 19 20 21 21 21 23 23 20 20 19 18 17 20 21 24 25 25 26 27 29 31
22 20 20 19 16 16 17 18 17 15 16 18 17 17 17 18 19 19 19 20 20 21 23 23 23 22 22 21 20 21 24 23 24 25 27 29 30 31
21 19 18 15 15 16 15 15 15 15 17 18 17 17 17 17 17 18 19 18 19 18 20 22 25 26 23 23 23 22 24 24 28 31 32 32 33 33
18 16 13 14 14 14 14 14 15 15 17 17 17 16 16 16 16 17 18 19 18 18 19 22 24 25 25 25 23 24 25 28 31 31 31 30 32 32
16 14 14 14 14 14 14 15 15 16 16 17 16 16 15 16 16 17 17 18 18 19 20 23 23 22 21 22 26 25 28 29 30 31 31 30 29 33
14 15 15 14 14 15 15 16 15 15 16 16 16 15 17 16 16 16 16 17 18 20 23 22 23 22 20 19 21 25 27 29 30 30 30 30 29 34
15 15 15 15 15 15 16 16 16 15 15 15 16 16 15 16 15 15 16 17 20 23 21 22 22 23 23 21 22 25 30 29 29 29 29 31 32 33
14 14 14 15 15 16 16 16 16 15 17 17 15 16 16 16 15 16 17 19 22 22 20 21 22 26 25 24 23 24 28 31 32 30 30 29 28 28
14 14 14 15 15 16 16 15 15 15 15 15 15 16 16 17 16 17 18 19 20 23 22 22 23 23 23 23 23 24 26 28 29 32 33 32 28 25
15 15 15 15 15 15 15 15 15 15 15 16 16 16 17 17 18 19 20 21 23 23 22 21 22 22 22 23 23 23 25 27 27 28 30 33 34 33

GFSNE_sfc_30mbdewp_033.txt.gz
Dewpoint
16 16 16 16 17 18 19 19 17 15 14 13 15 17 19 20 20 20 21 22 23 24 24 25 25 25 26 30 29 31 30 29 30 29 29 30 32 37
15 16 16 17 18 19 20 20 20 19 18 16 18 19 20 20 21 22 20 23 23 24 24 23 24 24 26 27 26 26 26 27 29 29 29 31 32 32
17 17 18 18 18 19 20 20 20 19 19 20 20 21 20 20 19 21 23 23 24 23 22 23 22 22 22 24 25 27 27 27 27 28 29 31 33 34
18 19 18 18 19 19 19 19 20 20 21 20 21 21 19 20 21 24 24 23 20 18 19 20 21 23 23 23 24 24 25 26 27 29 29 28 29 30
20 19 19 19 18 18 19 20 21 21 22 23 20 20 22 24 22 20 16 15 15 17 19 20 21 22 23 24 24 24 24 24 26 25 26 26 28 29
21 21 20 19 19 21 22 22 23 22 21 21 22 26 22 20 19 16 16 17 17 19 21 22 21 21 21 22 22 22 22 23 23 24 24 26 28 29
21 20 19 21 23 23 22 22 21 22 23 25 24 21 19 16 15 17 17 19 22 20 19 19 19 19 20 21 21 21 21 22 23 24 25 26 27 27
20 19 20 22 22 23 22 22 23 23 28 25 22 18 15 16 17 19 23 20 18 19 18 19 20 20 19 19 19 20 22 23 24 24 26 27 27 28
20 20 19 20 22 22 23 24 24 30 24 21 18 17 17 19 24 24 21 21 20 20 20 19 18 18 18 17 19 20 22 23 24 25 26 26 28 28
20 20 20 21 22 23 21 28 27 21 19 18 19 20 25 26 20 20 22 23 22 19 17 17 18 18 18 19 20 21 22 23 24 26 26 27 28 27
20 20 21 20 21 21 25 25 19 18 18 19 23 23 20 20 21 22 21 20 17 16 17 17 17 19 20 20 20 20 21 23 25 27 29 30 30 30
20 20 20 22 20 24 22 19 19 16 20 26 16 15 16 17 20 19 21 19 18 16 15 18 19 20 18 17 19 21 22 23 25 26 28 30 32 32
19 19 21 20 23 20 19 17 17 22 21 16 15 16 17 18 18 19 20 21 18 18 18 22 20 20 20 20 20 22 23 24 27 28 28 28 30 32
20 21 20 22 19 18 18 18 20 20 15 15 16 18 18 18 19 20 21 21 22 21 23 23 21 21 20 19 19 22 24 26 28 29 29 29 29 31
22 21 21 19 17 16 17 18 18 15 15 16 18 18 18 19 20 20 20 20 21 22 23 23 23 23 23 22 22 23 24 26 28 29 31 31 31 32
21 22 18 15 15 16 15 14 14 15 16 18 18 18 18 18 18 19 18 19 19 19 21 23 26 27 25 24 25 24 26 26 30 31 32 32 33 33
19 17 12 13 13 13 13 14 14 15 16 17 17 17 17 17 17 18 19 19 17 18 19 22 25 26 26 26 24 25 26 28 30 31 31 30 31 33
16 13 13 13 13 13 14 14 15 16 16 17 17 17 17 16 17 18 18 18 17 18 20 23 24 24 23 23 25 26 27 28 30 31 31 29 30 32
13 13 14 14 14 14 15 16 16 16 17 17 17 16 17 17 16 16 17 17 17 19 21 24 24 23 20 20 23 25 28 28 29 29 31 30 30 33
14 14 14 14 14 15 16 16 16 16 16 16 17 18 17 16 16 16 17 17 18 21 22 23 23 24 23 23 23 25 28 29 29 28 29 31 31 33
14 14 14 14 15 16 16 16 16 16 17 18 16 17 17 17 16 17 18 19 21 21 21 23 24 25 26 26 24 24 26 29 31 30 30 29 28 29
14 14 14 15 15 16 16 16 16 16 16 16 16 17 17 18 17 18 18 19 20 22 23 25 24 25 25 24 24 24 25 28 29 29 31 32 29 25
14 14 15 15 15 16 16 16 15 15 16 16 17 17 18 18 19 20 20 21 22 24 24 23 23 24 24 24 23 23 25 26 27 27 30 33 34 34

GFSNE_sfc_30mbdewp_036.txt.gz
Dewpoint
15 16 16 15 16 17 17 17 16 13 12 11 11 13 15 17 18 19 19 20 22 24 25 25 26 26 25 26 28 30 29 29 31 29 31 33 33 33
14 16 16 16 17 17 17 17 17 16 15 13 13 15 17 17 18 19 19 21 22 23 24 23 24 24 25 26 26 27 27 28 29 30 31 31 31 31
17 17 17 18 17 16 16 16 16 16 15 16 16 17 18 18 17 19 20 21 20 19 20 21 22 23 24 25 26 27 28 30 31 30 31 31 31 31
17 18 17 17 17 16 15 15 16 17 18 18 19 19 19 18 21 21 19 16 15 16 18 21 23 23 24 25 26 27 27 28 28 30 30 30 31 31
18 19 18 17 16 16 17 18 19 19 20 22 21 20 20 23 21 20 16 15 15 17 19 20 22 23 24 25 25 25 25 25 26 27 27 27 28 30
19 20 19 17 16 18 19 19 18 20 20 19 21 23 27 22 18 15 14 17 17 19 21 21 21 21 22 22 23 23 24 24 24 25 26 26 27 28
18 18 17 18 22 23 22 20 20 20 23 25 24 27 21 17 13 15 17 19 22 20 19 20 19 20 21 22 21 21 21 23 24 25 26 28 28 28
17 16 16 18 18 21 21 22 23 25 27 27 25 19 15 13 16 19 22 24 19 20 18 20 21 20 20 21 20 21 22 23 24 25 25 26 27 28
17 17 17 17 19 19 20 21 25 25 26 22 19 15 15 18 23 26 22 20 20 21 21 20 19 19 20 19 20 22 23 25 26 27 28 28 28 29
17 18 18 18 18 20 21 25 26 22 17 17 17 17 21 25 24 20 22 22 23 21 19 19 19 19 21 21 22 23 24 25 26 28 29 30 31 31
17 17 19 18 19 21 24 28 18 16 16 16 19 24 24 20 20 21 22 21 19 19 19 19 19 21 21 22 22 21 22 24 26 27 30 31 33 33
17 17 17 19 20 23 24 18 18 14 16 23 21 16 16 16 19 19 21 21 20 18 17 20 21 20 19 18 22 24 24 25 26 27 29 32 34 33
17 15 17 18 21 21 20 17 16 19 22 18 15 15 17 18 19 20 22 23 21 20 20 22 21 21 21 21 22 24 25 26 27 29 30 30 31 33
17 19 19 21 21 19 18 18 19 21 16 15 16 17 19 21 21 22 22 23 23 22 23 23 21 22 21 21 20 23 25 28 29 30 31 33 34 34
21 21 21 20 18 15 15 18 18 15 15 16 18 20 20 21 22 22 23 23 23 23 24 24 24 24 24 22 22 24 26 27 29 30 32 32 32 32
21 21 17 16 13 14 13 13 14 15 16 18 19 19 20 21 20 21 21 20 21 21 23 24 26 27 25 26 25 24 26 27 29 31 32 31 33 34
20 15 12 10 12 12 12 14 15 15 17 18 19 19 19 19 19 20 20 21 20 19 21 23 25 27 28 27 25 26 27 28 29 30 31 30 31 33
16 12 11 12 12 12 14 15 16 18 18 19 19 19 19 18 19 20 20 20 20 20 21 23 25 25 24 25 27 27 27 28 29 30 32 29 30 31
12 13 13 13 13 14 16 17 18 18 19 20 19 19 19 20 19 19 19 20 20 21 22 24 25 25 22 20 24 26 27 28 29 29 30 30 30 31
13 13 13 13 14 15 17 18 19 19 19 19 19 20 19 19 19 19 20 20 20 22 23 23 25 26 24 23 24 25 28 29 29 28 29 30 32 32
13 13 13 14 16 17 18 18 18 19 20 20 19 20 20 20 19 20 20 21 22 22 22 23 25 27 28 28 26 25 27 29 29 30 30 29 29 29
13 14 15 16 17 18 18 18 18 18 19 19 19 20 20 21 20 21 21 22 22 23 24 26 26 27 26 25 24 25 26 28 29 29 31 33 29 26
15 15 16 17 18 18 18 18 18 18 19 19 19 20 21 20 22 22 23 24 25 25 25 24 25 26 25 25 25 25 25 26 27 27 28 32 34 34

GFSNE_sfc_30mbdewp_039.txt.gz
Dewpoint
17 18 18 17 17 18 18 18 18 16 16 15 13 15 16 17 18 20 19 20 22 23 24 25 25 25 26 27 28 28 29 29 30 31 32 33 33 33
15 16 17 18 18 18 18 18 18 18 16 16 16 16 17 18 19 20 20 20 22 22 23 23 23 23 24 26 26 27 29 30 31 32 33 32 33 33
17 18 18 18 18 18 18 18 17 17 16 17 18 19 20 20 20 20 22 22 21 21 20 21 22 24 25 26 26 27 28 29 29 30 32 33 33 33
17 17 18 17 18 18 17 17 17 18 18 18 20 21 21 21 20 23 23 21 19 17 19 21 22 23 24 25 26 27 27 28 29 29 29 30 31 32
18 18 18 18 18 17 17 18 19 20 20 20 20 20 21 22 25 25 20 18 16 18 19 20 22 23 24 24 25 25 25 26 26 26 27 28 28 29
19 19 19 18 18 18 19 21 20 20 21 20 21 23 24 26 24 19 16 17 19 19 21 23 21 22 23 22 23 24 24 25 25 26 26 26 27 28
19 18 17 18 19 21 21 22 22 22 23 24 24 25 25 20 18 16 17 20 20 24 21 21 21 21 22 22 22 22 23 24 25 26 27 28 29 30
17 16 16 17 17 18 21 21 21 22 26 27 26 23 22 18 17 19 21 22 23 21 20 20 21 21 22 21 21 22 24 25 26 27 28 29 30 30
17 17 17 16 18 19 19 20 22 23 24 23 22 19 18 18 21 22 24 23 20 21 21 22 22 20 21 20 22 23 25 26 27 28 28 30 31 32
17 17 17 18 18 19 20 24 25 26 23 19 18 18 19 21 27 29 23 22 22 22 21 21 20 20 21 22 22 24 25 26 26 27 28 29 30 32
15 17 17 18 18 20 22 24 25 20 18 17 18 20 23 22 19 20 22 22 20 19 20 20 21 22 21 21 22 22 23 24 26 28 29 29 30 32
16 17 17 17 19 21 21 24 20 18 18 21 22 20 17 17 19 20 22 23 21 19 19 21 22 22 19 19 22 23 24 25 26 27 28 29 32 34
20 17 17 19 21 23 22 20 18 19 20 21 17 16 17 19 20 22 22 24 22 20 20 22 22 21 21 20 20 22 23 25 26 27 30 30 31 33
18 18 20 22 22 20 19 17 18 20 18 16 17 18 19 21 22 22 22 23 24 24 24 24 22 21 20 19 19 20 22 25 27 28 29 31 32 33
19 21 21 20 18 16 14 17 16 15 16 17 19 20 21 22 22 22 23 24 23 23 23 23 24 24 24 22 21 22 23 25 27 29 32 31 31 31
22 22 19 16 13 13 13 13 14 15 17 20 20 20 21 21 20 21 22 22 21 21 22 23 24 25 25 25 25 24 24 24 27 31 31 32 30 31
20 18 14 11 13 13 13 14 16 17 19 20 21 21 20 20 20 20 21 22 21 19 20 22 24 25 26 27 25 25 25 27 28 28 30 29 29 30
18 13 12 14 14 14 14 16 17 18 20 21 20 20 20 20 20 21 21 20 20 20 21 22 23 25 24 25 25 26 25 26 27 28 30 29 28 28
13 14 14 15 15 15 17 18 18 19 21 21 21 20 20 21 20 19 20 20 20 20 21 22 24 24 22 20 22 24 26 26 27 28 28 28 29 29
14 15 15 15 15 17 18 19 20 19 20 20 20 21 20 20 20 19 20 20 20 21 23 23 23 24 24 24 23 25 27 27 29 28 28 29 30 31
14 14 15 16 18 19 20 20 19 19 21 21 20 20 20 21 20 20 21 21 22 23 22 22 24 26 27 28 25 23 25 27 28 30 30 29 29 29
14 16 17 18 19 20 20 20 19 19 20 20 20 20 21 21 21 21 22 22 22 23 24 26 25 26 28 26 24 25 25 26 28 29 29 32 30 26
17 18 18 19 20 20 20 20 19 19 19 20 20 20 21 21 22 22 23 24 25 26 24 24 24 25 24 24 25 26 27 26 26 27 28 30 35 35

GFSNE_sfc_30mbdewp_045.txt.gz
Dewpoint
19 20 19 20 20 20 20 20 18 16 16 17 17 18 19 19 20 23 22 23 24 25 25 26 27 27 27 27 28 30 30 32 33 33 34 34 35 35
18 16 17 20 20 20 20 20 20 19 17 17 17 19 19 20 22 23 22 23 24 24 25 26 25 26 26 26 28 28 31 31 31 33 34 34 34 34
17 18 19 20 19 20 20 20 19 19 17 18 19 21 22 21 22 22 23 22 23 25 25 24 24 24 25 26 26 27 29 30 31 32 33 34 34 34
17 18 18 19 19 20 20 19 19 19 20 19 21 22 22 22 22 22 23 24 25 26 23 22 22 23 24 26 27 28 26 28 29 30 30 29 31 33
19 19 19 19 19 20 20 19 20 20 21 21 21 23 23 24 25 26 26 26 23 22 20 20 22 24 26 26 25 26 26 26 27 27 27 28 29 30
21 21 20 19 19 19 19 20 20 21 22 22 22 23 24 23 24 24 22 22 20 19 20 21 23 25 23 23 24 25 25 26 26 27 28 30 31 32
20 19 19 21 21 21 20 21 21 22 22 22 23 23 22 22 23 22 21 20 20 20 20 22 24 22 22 22 22 23 25 26 26 27 29 30 31 33
20 20 19 21 19 20 20 20 21 21 22 22 25 22 22 21 20 19 20 19 19 23 23 23 22 21 21 22 23 24 24 25 27 28 29 30 31 32
19 18 17 17 20 19 21 22 21 23 24 24 23 23 23 20 20 21 23 24 24 23 22 21 21 20 21 21 22 23 25 26 26 26 28 29 29 30
17 18 19 20 20 21 21 22 23 24 25 25 24 22 21 22 24 26 24 22 22 21 20 19 20 20 20 21 22 23 24 25 25 25 26 27 28 29
20 20 22 21 22 21 22 23 24 25 26 22 21 22 23 22 21 21 20 20 18 18 19 19 19 20 20 20 20 22 22 22 23 24 26 27 27 28
20 21 23 21 21 22 23 23 22 21 20 21 21 19 18 18 20 20 20 20 19 18 17 20 20 20 17 18 18 19 20 21 22 23 24 26 27 28
21 20 20 22 22 23 22 20 19 19 19 15 15 16 17 18 19 21 21 22 21 19 20 22 21 20 20 19 19 20 20 20 21 23 24 25 27 29
20 20 21 23 22 21 19 18 19 19 15 15 16 17 19 20 21 21 22 22 23 22 22 23 21 21 20 18 17 18 19 21 23 23 25 26 27 28
21 22 23 21 18 16 17 18 17 15 16 17 18 19 19 20 21 22 21 21 21 22 22 22 22 21 21 19 18 19 20 21 23 24 25 26 26 27
22 22 19 16 16 16 16 16 16 16 18 19 18 19 20 20 20 20 20 19 19 18 20 21 22 22 21 21 21 21 21 21 23 24 25 26 27 28
19 15 14 14 16 15 15 16 16 17 18 19 19 19 19 19 19 19 19 19 18 18 17 19 21 22 22 22 21 21 21 22 24 25 26 26 26 27
14 13 14 15 15 15 16 16 17 18 18 19 19 19 18 18 18 19 20 19 17 17 18 19 19 20 20 21 24 23 24 24 25 26 26 25 25 26
14 15 15 15 16 16 17 18 18 18 19 19 18 18 18 18 19 18 18 18 18 18 18 19 21 21 18 17 20 23 26 27 26 26 25 25 26 26
15 15 15 16 17 18 18 18 18 18 18 18 18 20 20 19 18 18 18 18 18 19 21 21 21 22 21 21 23 24 25 26 27 26 26 26 27 28
15 16 16 17 18 18 18 18 18 18 19 20 18 19 19 19 18 19 19 20 21 20 19 20 22 25 27 27 23 21 23 25 27 28 28 27 26 26
16 16 17 18 18 19 18 18 18 18 18 18 18 19 20 20 20 20 20 20 20 21 21 23 25 26 25 24 22 22 24 26 27 27 28 29 28 25
16 17 18 19 19 19 19 18 18 18 18 19 19 20 21 21 22 22 22 22 23 23 24 24 24 25 24 24 25 25 25 24 25 26 26 28 29 30

GFSNE_sfc_30mbdewp_048.txt.gz
Dewpoint
20 20 19 20 20 20 20 20 17 15 16 17 17 19 19 20 21 24 23 25 24 25 26 27 27 28 28 28 28 29 33 32 32 32 33 34 34 35
20 18 18 20 20 20 20 20 21 19 17 19 17 19 20 21 23 23 23 24 24 25 26 26 26 27 27 27 29 28 29 31 31 33 33 34 34 34
18 17 18 20 19 20 20 20 20 20 18 18 19 21 21 22 22 23 23 23 23 25 25 26 26 25 26 25 26 27 27 30 32 31 31 33 34 34
17 18 18 19 19 20 20 20 19 19 19 18 20 21 22 23 23 23 24 25 25 26 26 25 24 24 25 26 26 28 29 28 28 29 29 29 29 32
20 20 20 20 19 20 20 20 20 20 21 21 21 22 23 23 24 25 25 26 26 24 22 22 23 24 26 26 27 26 26 26 27 27 27 28 29 30
24 22 20 20 19 19 19 20 20 20 21 21 22 22 23 24 24 23 22 21 20 20 21 22 24 25 25 25 25 25 25 26 26 27 28 29 30 32
20 20 20 22 24 22 21 21 21 21 21 21 22 23 23 22 21 21 20 20 20 21 21 22 23 24 24 23 23 23 24 26 27 27 28 28 30 32
19 19 18 20 20 23 22 21 21 22 22 22 22 24 23 22 22 21 20 20 20 22 23 22 22 21 22 22 22 24 25 25 26 26 28 29 30 31
18 17 18 19 22 20 22 22 23 24 24 24 24 24 23 23 22 21 22 24 23 23 22 20 20 19 20 21 22 23 24 25 26 26 26 27 29 31
19 19 20 21 22 23 22 22 23 24 24 24 25 25 25 23 25 25 22 21 21 20 20 18 19 19 20 20 21 23 24 25 26 26 26 25 26 27
20 20 23 22 23 22 22 23 24 24 26 23 23 23 24 22 20 21 20 20 18 18 19 18 19 19 19 19 20 22 22 23 23 24 25 26 26 26
20 21 22 21 22 23 24 22 20 19 19 21 18 16 17 17 20 20 20 19 18 17 17 18 19 20 17 18 18 20 19 21 22 23 24 25 25 25
21 20 20 22 24 23 21 19 19 20 19 15 15 16 17 18 20 21 21 21 20 18 19 21 21 19 19 18 19 19 20 20 20 21 22 24 25 26
21 21 21 25 21 20 19 19 20 20 15 16 17 18 19 20 20 21 21 22 22 22 22 22 19 19 18 17 16 17 19 20 21 21 23 24 26 27
22 22 23 20 18 17 18 19 19 16 16 17 18 19 19 20 21 21 21 21 21 21 22 22 22 21 20 18 17 18 19 20 21 22 23 24 25 25
22 18 17 16 17 17 17 16 16 17 18 19 18 19 20 20 20 20 20 19 19 18 19 20 21 21 19 19 20 19 20 20 21 22 23 24 25 26
18 14 14 15 15 16 16 16 17 17 19 19 19 18 18 19 18 19 19 18 18 17 17 18 19 20 21 21 19 20 20 21 22 22 24 24 25 26
15 14 14 15 16 16 16 17 17 18 18 18 18 18 18 17 18 18 19 19 17 17 17 18 19 19 18 19 22 21 21 22 23 24 25 24 25 26
14 15 15 16 16 17 17 18 17 18 18 18 18 17 18 18 19 18 18 18 17 17 18 18 19 20 18 16 18 21 24 26 26 25 25 24 24 25
15 15 16 16 17 17 18 18 17 17 17 17 18 19 19 18 18 18 18 18 18 19 21 21 20 21 20 19 22 23 25 26 26 25 25 25 27 27
15 16 16 17 17 18 18 18 18 17 19 19 17 18 18 19 18 19 19 20 22 21 20 20 22 24 26 26 23 21 23 25 26 27 28 27 25 25
15 16 17 18 18 18 18 18 17 17 17 18 18 19 20 21 20 20 21 21 21 22 22 23 24 26 26 24 22 22 23 25 26 27 27 29 27 24
16 17 18 18 18 18 18 18 18 17 18 18 19 20 21 21 22 22 23 24 24 25 25 23 23 24 24 24 24 24 24 24 24 25 26 28 29 30

GFSNE_sfc_30mbdewp_051.txt.gz
Dewpoint
24 23 20 21 20 20 20 19 16 13 15 16 16 19 19 20 22 24 23 25 25 25 26 28 28 28 28 28 29 28 29 31 31 32 32 33 35 35
24 22 21 21 20 21 21 21 20 18 16 18 18 18 19 21 23 24 24 25 25 25 26 26 27 27 28 27 28 28 28 28 29 32 33 34 35 35
21 18 19 20 20 20 21 21 20 20 18 19 19 19 20 21 22 23 24 24 24 25 26 26 27 27 27 27 27 27 28 30 31 33 33 34 32 34
20 19 19 19 20 20 21 20 20 20 19 18 19 20 21 22 23 23 23 24 24 25 26 26 25 25 26 27 27 28 29 31 31 28 28 30 31 31
28 26 26 27 24 21 21 20 20 20 20 20 20 22 22 23 23 24 25 24 25 23 22 23 24 25 26 27 27 26 27 27 27 27 27 27 28 28
30 30 26 23 23 20 19 20 20 20 21 21 21 22 22 23 24 23 22 22 21 21 21 23 24 25 25 25 26 26 26 26 27 27 27 27 27 30
23 21 21 23 25 24 23 22 21 21 21 21 22 22 22 24 23 22 22 22 21 22 22 22 23 23 24 24 23 23 24 26 27 27 28 29 29 30
19 19 18 19 23 24 23 23 23 22 22 22 21 23 24 23 23 23 22 21 20 22 22 21 22 21 21 21 22 24 25 26 26 26 26 28 29 30
17 18 18 20 23 21 23 24 24 24 24 24 24 23 23 24 24 23 23 23 22 21 21 20 20 19 20 19 21 23 24 25 26 26 26 27 28 29
19 19 20 22 23 23 23 23 24 24 25 25 24 25 25 25 26 26 23 21 21 21 20 18 18 18 19 20 21 23 24 25 26 26 26 26 26 26
19 20 22 22 23 23 23 24 24 24 23 22 22 24 24 22 21 21 20 20 18 18 19 18 18 18 19 19 20 22 23 23 23 23 24 25 26 26
21 21 22 22 22 24 24 22 20 19 19 21 18 16 17 17 20 20 20 19 19 17 18 18 19 20 17 18 18 19 19 21 22 23 24 24 25 25
21 21 21 23 24 23 22 20 19 21 20 16 15 16 18 19 20 20 21 21 19 18 19 22 20 19 19 17 19 19 19 19 20 21 22 23 24 25
21 21 22 25 22 21 19 20 21 21 16 16 17 18 19 19 20 20 21 21 22 21 21 22 19 18 17 16 15 17 18 19 20 21 21 23 24 26
22 22 22 20 18 17 19 21 20 16 17 17 18 19 19 20 20 20 21 21 21 21 22 21 21 20 19 17 16 17 18 19 20 21 21 22 23 23
21 16 16 16 17 18 17 17 17 17 18 19 18 19 19 19 19 19 19 18 18 17 19 20 20 20 18 19 19 17 18 19 20 21 22 23 23 24
18 14 14 15 16 16 16 17 17 18 19 18 18 18 18 18 18 18 18 18 17 17 17 18 19 20 20 19 18 18 19 19 20 21 22 22 23 24
15 14 14 15 16 16 17 17 17 18 18 18 17 17 17 17 17 18 19 18 17 17 17 18 18 19 18 19 21 20 20 20 21 22 24 24 24 25
14 15 15 16 16 17 17 17 17 17 18 17 17 17 17 17 19 17 17 18 18 18 18 19 20 20 18 16 18 20 23 24 25 25 25 25 24 24
15 15 16 16 17 17 17 17 17 17 17 17 17 19 19 18 17 18 18 18 18 20 21 21 22 22 20 20 22 23 25 26 26 25 25 25 26 27
15 16 16 17 17 17 17 17 17 17 18 19 17 17 19 20 19 19 20 21 21 21 21 21 23 25 26 26 23 21 23 24 27 27 27 26 25 24
15 16 16 17 17 17 17 17 17 17 17 17 17 18 20 21 21 21 21 21 21 22 24 25 24 24 25 24 22 22 23 24 26 27 28 29 27 24
16 16 17 17 17 17 17 17 17 17 17 17 18 19 21 21 23 23 23 22 24 24 24 23 22 23 23 24 24 24 24 24 24 25 27 29 30 30

GFSNE_sfc_30mbdewp_054.txt.gz
Dewpoint
24 24 24 23 22 21 20 18 14 11 13 16 16 19 19 20 21 25 25 26 26 26 26 27 28 28 28 29 29 29 30 29 30 32 30 32 33 36
24 21 22 23 23 23 23 21 20 17 13 17 18 19 19 20 21 25 24 26 26 25 26 26 27 27 28 28 28 28 29 28 28 30 31 33 35 34
23 22 22 23 23 24 25 24 24 24 19 19 20 20 19 20 21 22 24 24 24 25 25 26 27 27 27 27 28 28 28 29 30 31 32 33 36 34
22 23 23 26 27 26 28 28 24 22 20 18 19 19 20 21 22 22 23 24 24 25 25 26 26 26 27 27 27 28 29 30 29 30 30 31 32 31
30 31 32 32 32 32 29 24 24 22 21 20 19 21 22 23 23 23 24 25 25 24 23 24 25 26 27 27 27 27 27 27 28 28 27 28 28 28
32 32 31 30 28 27 25 21 20 21 21 21 21 21 22 23 24 24 23 22 22 22 23 24 25 25 25 25 26 26 27 27 27 27 27 27 28 28
30 29 29 29 30 28 26 24 22 21 22 21 22 22 22 23 23 23 22 23 23 23 22 22 23 23 23 24 23 23 24 26 27 27 27 27 29 30
28 27 23 22 24 23 23 23 24 23 22 23 22 22 24 24 23 23 23 22 21 22 22 21 21 21 21 21 22 24 25 26 27 27 26 28 29 30
17 18 18 20 23 22 24 24 25 25 25 25 25 24 23 23 23 23 24 24 22 22 21 20 20 19 20 20 21 23 24 26 27 27 26 26 27 28
19 20 20 22 23 23 23 24 24 25 25 25 24 24 24 25 25 25 24 22 21 21 21 18 18 18 19 19 21 23 24 25 26 26 26 26 26 28
19 21 23 22 23 23 23 25 25 23 22 22 23 25 24 23 21 22 20 20 18 18 19 19 18 18 18 19 19 22 22 23 23 23 24 25 26 26
21 21 22 22 23 24 25 22 19 19 19 21 19 17 17 17 21 20 20 19 18 17 18 17 18 19 16 18 18 20 19 20 21 23 24 24 25 25
21 21 21 24 24 24 21 19 19 21 20 17 16 17 18 19 20 20 21 20 19 18 18 21 20 19 19 17 18 19 19 18 19 20 21 22 24 25
21 22 22 23 21 20 19 20 22 22 17 16 17 18 19 19 20 20 20 21 21 21 21 21 19 18 17 16 15 16 18 19 20 20 21 22 23 25
22 22 21 19 18 18 20 21 20 17 17 18 18 19 19 19 20 20 20 20 20 20 21 21 20 20 19 16 16 17 18 18 19 20 20 21 21 22
19 15 16 17 18 18 17 17 17 17 19 19 18 18 19 19 19 19 18 18 17 17 18 19 19 19 18 18 18 17 18 18 19 20 21 21 22 23
18 13 14 15 16 16 17 17 17 18 18 18 18 18 18 18 18 18 18 17 16 16 17 18 19 20 20 20 18 18 18 19 20 20 21 21 22 23
14 14 14 15 16 16 17 17 17 17 17 17 17 16 16 17 17 18 19 18 17 17 17 18 19 19 19 20 22 19 19 20 21 22 23 23 23 25
14 14 15 16 16 16 17 17 16 17 17 16 16 16 16 17 19 18 17 18 18 18 19 20 22 22 19 17 19 22 24 24 25 25 25 24 24 24
14 15 15 16 16 17 17 16 16 16 16 16 16 17 18 18 18 18 19 19 19 20 21 22 22 24 22 22 22 23 25 26 26 25 25 26 27 27
15 15 16 16 17 17 17 16 16 15 17 19 16 16 18 19 19 20 20 22 23 22 21 21 22 26 26 25 22 21 22 25 29 28 27 26 25 25
15 16 16 17 17 16 16 16 16 16 16 16 16 17 19 20 20 21 22 22 22 22 22 23 25 25 24 23 21 21 22 24 26 27 30 31 28 24
15 16 17 16 16 16 16 16 16 16 18 17 18 18 20 20 21 23 24 24 23 24 24 23 24 24 22 22 23 23 23 24 25 26 27 29 30 30

GFSNE_sfc_30mbdewp_060.txt.gz
Dewpoint
45 41 38 30 26 27 26 29 30 27 26 25 22 23 26 27 26 29 28 26 26 28 29 29 29 29 30 30 31 31 31 31 31 32 33 33 33 34
37 33 33 32 30 27 27 28 27 26 24 27 28 30 31 33 32 32 27 25 25 26 28 29 28 28 29 29 29 30 30 31 31 32 32 34 35 36
35 34 31 31 30 30 31 30 30 30 28 31 32 33 32 31 27 23 24 23 22 23 25 27 27 28 29 29 30 30 30 30 31 31 33 34 35 35
28 28 29 31 33 34 34 33 33 32 32 30 29 29 28 29 28 26 25 23 22 22 24 26 28 29 29 29 29 30 30 30 30 30 31 31 30 31
31 31 31 32 33 34 33 32 31 31 31 29 27 27 28 29 27 24 23 22 22 22 22 23 25 26 28 29 29 29 29 29 29 29 29 30 30 30
34 34 34 34 33 32 32 31 31 30 29 28 27 26 24 23 24 22 21 21 19 20 23 24 25 25 26 27 27 27 28 28 28 29 29 29 29 29
33 32 32 33 33 32 31 30 30 29 28 26 24 23 23 21 20 21 20 19 21 23 22 21 20 21 22 22 22 23 24 25 27 28 29 28 29 30
30 30 31 31 31 30 30 29 27 25 26 25 25 21 20 20 20 19 20 21 21 22 21 21 21 20 21 21 21 23 25 27 27 28 28 28 28 28
25 26 25 28 27 24 25 24 24 25 26 25 22 21 20 20 24 24 23 23 23 22 21 20 21 20 20 19 21 22 24 26 27 28 28 28 27 27
21 21 21 22 21 22 22 24 25 25 25 23 22 21 21 22 23 26 25 22 22 21 21 20 20 20 20 20 22 23 24 25 26 26 27 26 26 27
22 22 21 20 22 25 24 28 24 22 21 21 22 24 25 25 24 22 22 22 21 20 21 20 21 21 22 22 22 22 22 23 24 25 26 26 27 27
20 19 22 23 24 24 24 22 20 18 17 23 22 20 19 18 21 23 22 22 22 21 21 21 21 21 20 19 21 22 22 22 23 24 24 25 25 25
19 19 20 24 23 22 22 19 18 20 22 21 18 17 19 20 21 21 22 23 22 22 23 25 22 22 22 20 21 22 23 23 23 25 25 25 26 26
19 19 20 22 20 20 20 22 23 23 19 17 18 20 21 23 25 25 25 25 24 24 25 25 22 22 21 20 19 21 23 25 26 26 27 27 26 26
19 21 20 18 19 19 20 22 22 18 18 19 21 22 23 24 25 25 26 26 26 26 26 25 24 23 22 20 20 21 22 23 25 26 27 27 27 27
20 17 15 18 19 19 18 18 18 18 19 20 20 21 22 23 23 24 24 24 23 24 27 27 26 24 21 21 22 21 22 22 24 25 26 26 26 25
20 11 13 15 16 16 17 18 18 18 20 21 21 21 21 22 23 24 23 23 22 22 23 25 26 27 27 25 22 22 22 23 25 26 26 26 26 26
12 12 15 16 17 17 17 18 19 20 20 21 21 21 21 22 22 23 25 25 23 22 22 24 24 24 24 25 26 25 25 25 27 28 28 27 26 27
13 16 17 17 18 19 19 20 21 21 21 21 21 21 21 21 22 23 23 24 23 23 23 25 26 25 22 20 22 24 26 28 27 26 26 27 27 27
16 17 18 18 19 19 20 21 21 21 21 21 21 21 21 22 22 22 23 23 23 24 24 24 25 26 25 23 23 24 26 26 26 26 26 27 28 28
16 17 18 19 20 20 20 20 20 20 21 20 21 21 21 21 21 23 23 23 23 24 23 23 25 26 27 28 25 23 24 26 26 27 27 27 26 26
16 17 18 19 20 20 20 20 20 20 21 21 21 21 21 21 21 22 23 24 23 24 24 26 27 28 28 26 24 24 23 25 26 26 27 27 27 25
16 17 18 20 21 21 21 20 20 20 21 21 21 21 22 21 21 22 23 24 24 25 25 26 26 26 26 27 25 23 23 24 24 24 25 27 28 29

GFSNE_sfc_30mbdewp_063.txt.gz
Dewpoint
54 50 42 38 38 38 39 40 40 34 30 31 25 27 28 29 29 31 32 34 33 30 30 30 31 31 32 31 32 32 32 32 33 33 33 34 34 34
44 41 37 36 35 34 34 34 35 35 30 27 29 30 32 33 34 36 34 33 30 27 27 28 29 30 30 30 31 31 32 32 32 33 33 33 35 36
38 38 36 36 35 34 35 35 34 33 33 32 33 33 33 33 33 30 29 27 25 25 26 26 28 28 29 30 31 31 31 31 32 32 32 32 32 34
35 35 34 34 34 34 35 35 35 34 34 32 31 31 31 32 31 28 27 26 24 23 25 26 28 29 29 30 30 31 30 31 31 31 31 31 31 31
33 32 34 34 34 35 34 33 33 32 32 31 30 29 28 29 29 29 26 24 23 23 22 21 23 26 28 29 30 30 30 30 30 30 30 30 31 31
34 34 35 34 34 33 33 32 32 32 31 28 27 28 29 28 26 24 23 23 22 20 22 24 25 26 26 26 26 27 28 28 28 29 29 29 29 30
33 33 34 35 35 34 32 31 30 29 28 28 27 26 25 24 22 22 21 21 22 24 24 24 23 23 24 24 23 23 24 25 27 28 28 29 28 29
30 31 32 32 32 32 31 30 29 27 27 27 27 24 22 21 21 21 24 22 22 24 23 23 24 22 23 23 23 23 25 25 26 27 28 28 29 28
30 30 29 29 26 24 25 25 25 25 26 26 24 22 21 22 25 24 24 23 22 23 24 22 23 23 23 22 23 24 25 26 27 27 28 28 28 28
24 21 21 21 21 23 22 24 26 25 25 24 24 23 23 22 22 24 26 25 24 23 24 22 23 22 23 23 24 24 25 26 27 27 27 28 28 28
21 22 20 19 23 25 25 28 25 23 21 22 22 23 24 25 26 26 24 23 23 22 24 23 23 23 24 23 24 24 24 24 25 26 27 27 27 27
19 19 22 24 25 25 24 22 21 19 18 22 23 22 22 20 20 22 23 23 22 22 23 22 23 24 23 22 24 24 23 24 25 25 26 26 26 26
19 19 19 23 23 22 22 21 19 21 22 22 20 18 19 20 22 22 23 24 23 22 24 26 25 24 23 22 23 24 24 24 25 26 26 26 27 27
18 18 20 23 20 20 21 22 23 24 21 18 19 20 23 24 25 25 26 26 26 25 26 26 24 22 21 20 19 21 22 23 25 26 27 27 27 26
20 22 20 17 19 20 20 23 22 19 19 19 22 23 23 24 25 25 25 26 27 27 26 26 26 24 23 21 20 20 21 21 23 25 27 27 27 28
21 19 14 17 19 20 19 18 19 19 20 21 21 22 23 23 23 24 24 24 23 23 25 26 28 27 24 23 23 21 21 21 23 24 25 27 27 28
21 14 11 14 16 17 17 18 19 19 20 22 21 21 21 21 22 23 23 24 24 24 22 24 26 27 28 26 23 23 24 25 26 26 26 26 28 29
17 10 14 17 17 18 18 19 21 21 21 21 21 21 21 21 21 22 23 24 24 23 23 24 24 25 26 26 28 26 26 26 26 27 28 27 26 26
13 15 18 18 19 20 20 21 21 21 22 22 22 21 21 21 21 21 21 24 24 23 23 24 25 26 23 21 23 25 23 23 24 24 26 26 27 27
14 18 19 19 19 20 20 21 21 22 21 22 21 21 21 22 21 21 22 23 24 24 24 24 24 25 25 24 24 25 27 26 25 26 26 26 27 27
16 18 19 19 20 20 22 21 21 21 22 22 22 21 21 22 21 20 21 22 24 24 23 22 24 26 27 28 26 24 24 26 27 26 27 27 26 26
16 17 18 20 21 21 21 21 20 20 21 21 21 22 23 23 22 21 21 22 22 23 23 24 25 26 28 27 24 24 25 26 25 26 27 28 27 24
16 18 19 20 21 21 21 22 22 22 21 22 22 22 22 22 22 23 22 21 23 23 24 24 25 28 26 26 25 26 26 26 24 23 24 26 27 29

GFSNE_sfc_30mbdewp_066.txt.gz
Dewpoint
57 56 49 42 42 41 42 42 42 37 35 34 33 35 34 34 34 34 32 33 34 35 35 35 33 32 33 33 33 33 33 33 34 34 34 35 35 35
48 46 42 39 38 39 39 41 41 39 36 33 33 32 34 34 34 35 36 36 36 34 33 31 30 30 31 32 32 32 32 33 33 34 34 34 34 35
41 40 39 38 37 37 38 38 38 38 35 32 33 34 33 34 35 35 33 31 30 28 28 28 28 29 30 31 31 32 33 33 33 33 33 32 32 34
38 38 37 36 37 37 37 36 36 36 35 32 32 31 32 33 33 31 29 27 27 26 26 27 28 28 27 29 30 31 31 31 31 31 31 31 31 31
36 36 36 36 36 36 35 34 34 33 33 32 31 32 31 30 29 29 29 28 27 24 24 22 23 26 28 29 30 30 31 31 31 31 31 31 31 31
35 36 36 35 34 34 33 33 32 32 31 30 27 27 28 29 29 25 24 24 23 22 24 24 26 27 26 26 26 27 27 27 28 28 29 29 29 30
34 35 35 36 35 34 33 32 30 29 28 28 28 27 26 25 24 24 22 23 23 23 24 24 24 24 25 27 25 24 25 26 27 28 29 29 29 29
31 32 32 33 35 34 31 30 30 29 28 27 27 25 23 22 22 24 23 21 20 24 23 23 25 24 24 24 26 25 26 26 27 28 29 29 29 28
30 30 29 30 30 29 28 25 25 26 26 26 25 24 22 23 23 22 22 23 23 24 24 23 23 23 24 24 25 26 27 27 28 29 29 29 29 28
29 26 25 24 23 25 25 26 26 25 26 25 24 24 23 24 25 25 24 25 25 24 24 22 23 23 24 25 26 26 27 28 27 27 28 28 28 28
23 23 23 23 25 25 26 27 25 22 21 21 21 22 24 25 26 26 24 22 22 22 24 23 23 23 23 23 24 26 25 25 26 27 27 27 27 27
19 20 22 24 25 26 23 22 20 18 19 22 23 22 22 23 21 22 22 20 22 22 23 23 23 24 21 23 23 23 24 25 25 25 26 27 27 26
19 19 21 23 23 22 22 21 20 22 24 22 21 19 20 21 22 23 23 21 21 22 24 26 25 23 23 22 23 22 22 23 23 24 25 26 27 28
19 21 22 21 19 20 21 23 24 24 22 19 19 20 22 23 24 25 26 26 26 26 26 26 23 22 21 21 20 20 21 22 23 23 24 25 27 27
20 21 19 17 19 20 20 22 22 20 19 19 21 22 23 23 23 24 25 27 27 27 27 26 26 26 25 22 21 21 21 21 23 24 24 24 24 26
22 21 15 16 18 19 20 19 19 19 20 20 20 22 22 22 22 23 23 24 24 24 24 26 26 27 25 25 24 23 23 22 23 24 25 25 25 27
20 16 11 14 17 18 18 18 19 19 19 21 21 21 21 21 21 23 23 24 23 22 24 25 26 27 27 26 24 25 24 25 25 25 27 27 27 28
18 13 13 18 18 19 19 20 21 21 21 22 21 21 21 21 21 22 23 23 21 22 24 24 25 25 26 26 28 26 26 26 26 25 25 24 24 26
15 14 18 19 19 20 20 20 20 21 21 22 21 22 22 22 20 21 21 21 20 21 24 24 25 25 22 20 21 25 24 24 24 25 25 25 25 26
15 14 17 19 19 19 20 20 21 21 21 21 21 22 21 22 21 20 20 20 20 21 23 25 24 24 23 22 23 25 27 26 26 25 25 26 27 28
14 16 18 19 19 20 21 21 21 22 21 22 22 21 22 21 20 21 21 20 21 22 20 21 22 24 25 26 24 23 24 26 27 26 26 27 26 25
14 15 17 18 19 20 20 21 21 20 21 21 21 22 22 22 21 20 21 21 21 21 21 21 23 24 25 24 23 24 24 25 26 28 29 29 26 24
14 15 16 18 18 20 20 20 20 20 22 22 22 21 21 21 21 21 21 21 21 21 21 22 22 23 24 26 26 25 25 26 24 25 25 27 27 27

GFSNE_sfc_30mbdewp_072.txt.gz
Dewpoint
52 52 52 48 48 48 49 48 48 45 40 38 36 38 39 41 44 42 42 43 44 43 43 42 42 41 40 40 38 37 36 35 35 35 35 36 36 36
45 45 44 42 42 43 44 44 44 44 42 37 36 36 38 39 41 38 38 41 41 41 41 40 40 40 38 36 34 34 34 34 34 34 34 34 35 36
41 41 40 40 40 40 40 41 41 41 41 34 34 34 35 36 38 37 38 38 38 38 38 39 37 34 32 32 32 32 33 33 33 33 33 33 33 33
38 38 38 38 38 38 37 37 37 37 37 34 33 32 33 35 36 36 36 35 33 33 35 31 30 30 30 30 29 31 32 32 31 32 32 32 33 33
37 37 37 36 36 35 35 34 34 34 34 33 32 32 32 33 33 33 32 32 29 29 30 30 28 27 27 28 30 31 31 31 31 31 32 32 32 32
36 35 35 35 34 34 34 33 33 32 32 31 31 30 29 30 28 27 26 26 25 23 24 26 26 27 29 30 29 29 28 28 29 30 30 30 31 31
33 35 37 36 36 35 33 32 31 30 30 29 28 28 27 26 25 26 25 23 23 23 23 24 23 24 24 27 28 27 28 30 30 30 30 31 30 31
31 32 32 31 32 33 33 33 31 31 29 28 27 25 24 23 23 23 22 20 19 23 23 23 25 24 25 24 27 29 29 29 30 31 31 31 30 30
26 26 26 27 27 27 26 26 27 27 27 26 26 24 22 23 22 22 21 21 20 23 25 22 23 23 24 24 26 27 29 30 30 30 30 30 30 30
23 22 22 24 25 26 27 26 25 25 25 25 24 24 23 24 23 23 23 23 24 24 24 21 23 22 23 24 27 28 28 28 28 28 29 29 29 29
23 24 24 24 27 27 23 22 22 19 20 25 25 24 25 25 26 25 24 23 20 22 23 23 22 23 23 23 24 27 26 25 26 27 27 27 28 28
20 20 25 25 24 23 22 21 20 19 22 23 22 20 21 21 24 25 23 19 19 19 23 23 22 22 19 21 22 22 23 24 25 25 25 27 27 27
19 19 22 25 21 21 22 20 20 22 24 21 19 20 22 24 25 25 23 20 19 21 23 26 23 23 23 22 23 23 22 22 22 23 25 26 26 27
19 20 21 20 20 21 21 23 24 23 20 19 20 22 22 22 23 23 25 26 27 26 26 26 24 23 22 21 20 21 21 23 23 23 22 24 26 26
21 23 23 19 19 19 22 23 22 19 19 19 19 20 22 21 22 22 23 25 25 25 27 28 27 26 25 22 21 22 23 23 24 24 23 23 23 24
22 21 18 17 18 20 19 19 19 19 20 20 20 21 21 22 21 24 23 23 23 23 25 26 24 24 23 23 23 23 24 23 24 25 25 25 26 26
22 16 12 16 18 19 19 20 21 21 21 21 21 21 22 22 22 23 23 23 22 21 21 21 22 23 25 26 23 24 24 23 25 25 25 25 26 26
19 15 13 17 18 19 19 20 20 20 21 23 23 22 22 22 22 22 23 22 21 20 20 21 22 21 21 22 26 24 25 24 25 25 25 24 24 25
17 14 14 15 17 19 19 19 19 21 22 22 22 22 22 22 21 21 21 20 20 20 19 21 21 20 18 17 19 21 21 21 22 23 24 25 24 25
14 14 14 15 16 18 18 19 19 21 22 22 22 22 22 21 21 20 19 19 18 18 19 20 20 21 20 18 19 20 23 23 23 23 23 24 25 27
16 14 14 15 15 16 17 18 19 20 21 22 22 21 21 21 20 19 19 19 20 21 19 18 19 21 22 23 19 18 20 23 25 24 24 25 24 23
18 16 15 15 15 15 15 17 19 19 19 21 21 21 21 20 19 19 19 18 18 18 18 19 20 20 20 19 18 20 20 22 24 25 27 28 25 23
16 15 15 15 14 14 14 15 16 19 19 21 20 19 19 19 19 19 19 19 19 19 19 19 20 20 20 21 21 20 20 21 22 23 24 25 26 28

GFSNE_sfc_30mbdewp_075.txt.gz
Dewpoint
49 49 48 46 46 46 48 49 49 46 44 40 39 39 40 43 45 45 46 48 46 46 46 46 46 45 44 44 43 44 41 39 38 37 36 36 37 37
44 44 43 42 42 42 43 44 44 44 43 38 37 37 39 40 43 41 42 44 45 45 44 43 43 42 42 43 40 39 37 36 36 35 35 36 36 36
41 41 40 40 40 40 40 41 40 40 40 35 35 35 36 37 38 38 40 40 39 41 41 41 42 41 40 37 35 34 34 34 34 34 34 34 34 34
38 38 38 38 38 38 37 37 37 37 37 36 33 33 33 35 36 36 37 37 36 36 38 40 40 38 36 33 32 31 31 32 33 32 32 33 33 33
36 36 36 36 35 35 34 34 34 34 35 34 32 33 32 32 33 34 34 34 36 34 33 34 32 31 29 29 29 30 32 32 32 32 32 33 33 33
36 35 35 34 34 33 33 33 33 33 32 32 31 31 31 32 30 29 30 28 26 24 25 26 28 28 28 29 31 31 31 30 29 30 31 31 32 32
34 34 35 36 35 34 32 31 30 29 29 29 28 28 27 26 25 26 24 23 22 23 23 23 23 23 24 27 28 29 28 29 30 31 31 31 31 30
30 28 28 28 29 31 31 30 31 29 27 27 26 24 23 22 23 23 22 20 19 23 23 23 24 23 24 25 27 29 30 30 30 31 31 30 30 30
23 23 24 26 26 26 27 28 28 28 28 25 24 24 22 23 21 21 21 20 20 22 25 22 23 23 24 24 27 28 29 30 31 31 30 30 31 31
22 22 24 25 28 25 24 25 24 21 25 24 24 23 23 23 23 22 22 23 24 24 24 21 23 22 24 24 27 29 29 29 28 28 29 29 29 29
21 24 24 24 26 26 23 22 21 19 22 27 27 26 26 27 26 25 23 23 20 21 23 22 22 22 22 22 23 27 26 26 26 28 28 28 28 28
19 19 26 25 24 22 22 20 19 19 23 23 22 20 22 24 26 26 23 20 18 19 22 22 22 22 19 20 22 22 22 24 25 25 26 27 28 27
19 19 21 23 21 21 23 20 22 23 24 21 19 20 22 24 24 24 22 19 19 20 23 26 23 23 22 21 22 22 22 22 22 23 25 26 27 28
18 20 21 23 19 22 22 23 24 22 20 19 20 21 22 22 23 23 23 26 26 25 26 26 24 24 22 21 20 21 21 23 23 23 22 24 26 27
21 23 23 21 19 20 21 23 22 19 19 19 19 20 21 21 21 22 22 23 24 26 26 27 27 26 25 22 21 21 22 23 24 24 23 23 23 24
22 21 19 18 19 20 19 19 19 19 20 20 20 21 21 21 22 23 23 22 23 22 23 25 27 26 22 22 22 21 22 22 23 24 24 25 25 26
22 17 12 15 18 18 19 20 21 21 21 21 21 21 21 23 22 23 23 23 21 20 20 21 22 23 23 23 21 22 22 23 24 24 25 24 25 25
20 17 12 15 18 18 19 19 20 20 21 23 23 22 22 22 22 22 23 22 20 19 19 19 19 21 20 20 23 22 22 23 24 25 25 24 23 24
17 16 15 14 15 17 19 19 19 20 21 21 22 22 22 22 22 21 20 20 19 18 18 18 18 18 17 15 18 21 23 22 21 22 22 23 23 24
14 13 13 14 14 15 16 17 18 19 20 22 21 21 21 21 20 20 19 18 18 17 17 17 18 18 18 17 18 19 21 21 21 21 21 23 24 25
19 18 16 15 14 15 15 16 17 18 19 19 21 22 21 21 20 19 18 19 20 20 18 18 18 20 21 21 18 17 19 21 22 22 23 23 22 23
16 17 17 17 15 14 14 13 14 16 18 18 19 20 21 21 20 19 18 17 17 17 17 18 19 18 18 18 17 17 18 20 22 23 24 24 24 22
15 16 16 16 14 13 13 12 13 14 15 17 19 20 20 19 19 19 18 18 18 18 18 18 18 19 19 19 19 20 20 20 20 21 22 24 25 27

GFSNE_sfc_30mbdewp_078.txt.gz
Dewpoint
48 48 48 45 45 46 47 48 47 44 43 40 40 38 40 42 44 45 47 47 49 49 49 48 47 46 46 46 45 44 45 44 45 42 42 41 39 38
44 44 43 42 41 42 43 44 44 44 42 38 37 36 38 41 42 41 43 43 46 46 45 44 44 43 43 43 44 43 42 41 40 40 39 37 37 37
41 40 40 40 40 40 40 40 40 41 41 36 34 35 36 37 38 39 39 39 39 41 42 42 42 42 42 41 40 39 39 39 37 36 35 35 36 35
38 38 38 38 37 37 37 36 36 36 37 36 33 33 33 35 37 37 37 37 36 37 38 39 40 40 39 38 36 36 35 33 33 33 33 33 34 34
36 35 35 35 35 34 34 33 33 34 34 34 32 33 33 34 34 34 35 35 36 35 36 36 36 35 34 32 31 31 31 32 33 33 33 33 33 33
36 36 35 34 33 32 31 31 32 31 31 32 32 31 30 31 30 30 30 28 27 24 26 27 28 29 30 30 30 32 32 32 32 31 31 32 32 32
32 32 33 36 35 33 31 30 29 28 28 27 26 27 27 25 24 25 24 23 22 23 23 22 23 23 24 27 28 29 29 29 30 31 32 32 31 31
25 26 27 27 29 30 30 31 29 26 25 25 24 23 22 22 23 23 21 20 19 23 23 22 24 23 24 24 27 29 29 30 31 31 32 32 30 31
22 24 26 27 26 25 28 28 27 29 28 24 22 23 22 23 21 21 21 20 20 22 24 21 23 22 24 24 27 28 29 30 31 31 31 30 30 31
22 23 25 26 27 24 23 23 20 23 25 24 23 23 23 23 23 22 22 23 24 24 24 20 22 22 23 23 26 30 30 30 29 29 29 30 30 30
20 24 24 25 25 26 21 21 21 19 24 27 27 27 27 27 26 25 22 23 21 20 23 22 22 22 22 22 23 28 27 26 26 28 28 28 29 29
19 20 26 25 24 23 21 19 19 19 24 23 21 20 23 25 27 25 23 21 18 18 22 22 21 21 18 20 22 22 22 24 25 25 26 27 28 28
18 19 20 23 21 22 23 21 23 24 23 20 19 21 23 24 24 24 21 19 20 20 22 26 23 22 21 20 21 22 22 22 22 23 25 26 27 28
18 20 22 25 20 21 23 23 25 21 19 19 20 20 21 21 22 23 23 24 26 25 26 26 24 23 22 21 20 20 20 22 22 22 22 24 26 27
20 22 24 21 20 20 21 23 22 19 19 19 19 20 21 21 20 22 22 23 22 23 25 26 26 26 25 22 21 21 21 22 23 24 23 23 23 24
22 22 20 18 19 21 20 19 19 19 19 20 20 20 21 21 22 22 22 23 22 21 21 22 24 26 23 23 22 20 21 20 21 23 25 25 25 26
23 18 12 13 16 18 19 19 20 21 20 21 20 21 21 22 23 23 23 23 21 20 19 19 20 22 23 21 20 20 20 21 22 23 24 24 24 25
21 19 16 13 15 17 18 19 20 20 20 21 22 22 22 22 22 22 22 22 21 20 18 17 17 18 18 20 23 20 20 20 22 24 24 23 22 22
21 18 16 15 14 15 16 18 18 19 19 20 20 21 21 22 21 21 20 20 19 18 17 17 16 16 15 14 17 21 21 21 22 22 22 21 21 22
20 17 14 14 14 14 14 15 16 17 18 20 20 21 21 21 20 20 19 18 18 17 17 17 16 16 16 16 17 18 20 20 20 19 20 21 22 23
20 19 18 17 16 15 14 14 14 15 16 17 19 19 20 21 20 20 19 19 19 20 18 18 18 20 20 20 17 16 18 20 21 21 21 21 21 22
19 18 17 17 17 16 15 13 12 13 14 15 17 18 19 19 19 19 19 18 17 17 17 18 18 18 17 17 16 16 17 19 21 22 23 23 23 20
16 15 15 15 15 15 14 12 11 12 12 13 13 14 16 18 19 19 19 18 17 17 17 17 17 18 18 18 18 19 18 19 19 20 21 23 24 24

GFSNE_sfc_30mbdewp_081.txt.gz
Dewpoint
49 48 48 46 45 46 47 48 48 44 44 42 42 40 40 42 44 45 46 47 47 49 49 48 47 46 46 46 46 46 46 45 45 45 44 45 44 44
45 44 44 42 43 43 44 45 46 46 44 39 38 37 39 41 41 41 42 42 45 46 46 45 44 44 43 43 44 44 44 43 43 43 43 43 42 42
42 41 41 41 41 40 41 41 40 41 42 36 36 36 37 38 38 39 39 39 39 42 42 42 41 42 43 42 41 41 41 41 41 41 40 38 37 37
39 39 38 38 37 37 37 37 37 37 39 37 35 34 35 36 37 37 37 37 36 38 39 40 40 39 39 39 39 38 37 36 36 35 34 34 35 34
36 36 36 36 35 35 35 35 35 35 36 36 34 34 34 35 35 35 35 35 34 34 33 34 34 34 35 37 34 32 32 32 33 34 34 34 34 34
36 35 34 34 33 33 32 32 32 33 33 33 33 31 31 30 31 30 28 26 25 24 26 28 29 29 30 31 31 32 33 33 32 33 32 32 32 32
32 33 35 36 35 33 31 30 29 28 29 29 28 28 26 25 24 25 24 23 23 24 22 22 22 23 23 25 27 29 29 30 31 31 31 32 32 31
27 27 29 28 31 32 32 30 29 25 27 27 25 23 22 23 23 23 23 22 20 23 23 21 24 22 24 24 26 28 28 29 30 32 32 32 32 31
26 27 28 27 26 26 28 27 29 28 26 23 21 22 22 23 23 24 22 22 20 23 24 20 22 22 24 23 27 28 29 30 31 32 32 32 30 30
23 26 27 27 27 23 23 23 24 26 26 23 23 23 24 24 24 25 24 24 24 23 24 22 23 22 23 23 26 29 31 30 29 29 30 30 30 30
24 24 24 25 25 25 21 22 20 21 25 27 27 27 27 27 26 26 24 24 20 20 23 23 23 22 22 22 24 29 28 27 27 27 28 28 29 30
19 22 27 25 23 26 19 18 19 20 25 22 20 21 24 27 28 24 24 23 21 21 23 23 22 22 22 22 24 23 22 24 25 26 26 27 28 28
17 18 20 23 22 23 22 23 24 24 22 19 20 22 23 24 24 24 23 24 23 22 24 26 24 22 21 21 22 23 23 22 23 24 26 26 26 28
17 20 22 26 21 22 23 24 27 23 19 19 20 21 22 23 24 24 25 25 25 25 25 27 24 23 22 21 20 22 23 23 25 26 26 26 27 28
20 21 25 21 21 21 22 24 24 20 19 20 20 21 23 23 23 23 24 24 24 24 24 25 25 24 24 22 21 21 22 23 24 24 26 26 26 26
23 23 21 19 21 21 21 22 19 19 19 20 21 22 22 23 22 23 22 22 22 22 24 24 25 25 22 22 22 21 21 21 23 24 24 24 26 26
23 20 14 12 15 17 18 19 20 20 21 21 22 21 22 22 21 23 23 22 21 21 21 22 22 22 22 23 21 21 21 21 23 23 23 23 25 25
23 20 18 15 13 15 16 17 19 20 21 22 22 22 21 21 21 22 22 22 21 20 20 21 20 19 20 20 23 21 21 22 23 23 24 23 23 24
23 22 20 17 16 15 16 17 18 20 21 21 22 22 21 21 20 20 20 20 19 19 20 20 19 18 17 17 18 22 23 22 22 22 22 22 22 23
23 22 20 17 16 16 16 17 17 18 19 20 21 21 21 20 20 19 19 19 18 19 19 19 19 18 17 17 18 19 21 21 20 21 21 22 23 23
22 21 20 19 18 18 18 17 17 16 16 17 18 20 21 21 20 20 18 18 18 19 19 18 19 20 22 21 17 17 19 21 21 22 22 22 21 21
22 21 20 20 20 19 19 18 17 16 17 17 17 18 19 20 20 20 19 18 17 17 18 18 19 20 19 17 16 17 18 19 20 21 22 22 23 20
21 21 20 20 18 17 17 16 15 15 14 14 14 15 16 16 17 17 18 18 18 17 17 17 17 18 18 18 18 18 19 19 19 19 21 22 23 23

GFSNE_sfc_30mbdewp_084.txt.gz
Dewpoint
51 51 49 48 47 47 48 49 48 45 45 45 44 42 42 43 43 44 44 48 48 49 48 48 47 47 47 46 46 47 47 47 46 46 45 45 45 45
48 47 47 45 45 47 47 47 47 46 43 43 41 40 40 40 41 41 41 42 45 46 46 45 44 44 44 44 44 45 45 45 45 44 44 44 44 43
44 44 43 44 44 44 44 44 43 44 44 39 39 38 38 39 39 39 39 38 39 42 42 42 42 43 42 42 42 42 41 41 41 41 41 42 42 41
41 41 40 40 40 39 40 40 40 40 42 40 37 37 36 37 37 38 37 37 37 38 39 39 39 39 39 39 39 39 38 38 37 37 37 36 36 36
39 39 38 38 38 38 38 38 38 38 39 39 36 36 36 36 35 35 34 34 30 28 30 33 34 34 34 36 35 33 33 33 33 34 35 35 35 35
37 36 36 36 36 36 36 35 35 36 37 36 35 33 33 32 31 30 29 27 26 24 26 26 27 27 28 30 32 33 33 34 34 32 34 34 33 33
36 36 37 35 34 33 33 32 32 31 33 33 32 31 28 26 25 24 23 22 23 23 21 20 20 21 21 23 24 27 29 29 30 31 32 32 32 32
32 32 32 33 33 33 31 31 27 25 27 28 26 21 21 22 22 22 23 21 20 24 21 18 21 20 22 23 28 29 29 29 29 30 32 32 32 32
31 29 25 25 25 26 27 28 29 28 26 21 19 19 20 22 26 26 23 22 20 21 21 18 21 20 23 22 26 29 30 30 31 32 32 31 31 31
25 26 26 26 25 21 21 24 25 26 24 22 22 22 24 25 24 26 24 23 23 22 23 22 22 21 22 23 24 28 32 31 30 29 30 31 31 31
22 23 23 24 28 22 21 23 19 22 27 27 27 27 27 27 26 25 25 24 21 20 23 23 24 23 24 23 23 30 29 29 28 28 29 29 29 30
22 25 27 24 24 25 17 16 18 18 23 22 20 22 23 27 28 24 24 25 24 24 24 24 24 24 25 23 25 25 25 25 25 27 27 28 28 28
16 15 18 23 23 26 20 21 22 23 23 19 19 21 22 24 24 24 24 26 25 24 26 25 24 24 23 23 24 25 25 25 24 25 26 27 28 27
15 16 19 25 22 23 24 24 28 25 19 19 19 20 22 23 25 25 25 25 24 25 25 28 24 24 22 22 22 24 24 25 27 28 28 28 28 28
17 18 24 24 24 21 22 25 27 22 18 19 21 23 24 26 26 26 25 26 26 26 27 26 24 24 24 22 22 22 23 25 27 27 26 27 27 27
23 23 22 18 20 18 19 23 24 20 18 20 21 23 24 25 23 24 23 23 23 22 26 28 27 25 23 23 23 23 23 23 25 26 26 26 26 25
20 21 19 12 12 15 16 17 18 19 20 22 22 23 22 23 22 23 23 22 21 21 22 23 25 24 24 24 22 22 22 23 25 25 24 24 25 26
23 20 17 15 12 10 12 14 16 18 20 21 22 23 22 22 22 22 22 22 21 21 21 22 22 22 22 23 25 23 23 23 25 25 24 24 23 25
24 21 20 20 17 15 15 16 18 18 22 23 23 23 23 22 21 20 20 20 20 20 21 21 21 20 19 19 20 25 23 23 24 23 23 23 24 25
24 23 23 22 20 18 18 18 19 19 20 21 21 22 22 21 20 20 20 19 19 19 19 20 21 20 19 19 20 21 22 22 22 22 23 24 25 24
25 25 24 23 22 21 21 21 21 21 20 20 20 21 21 21 20 20 19 19 18 18 18 19 21 22 24 23 18 18 20 22 23 23 23 22 21 21
23 23 23 23 23 23 23 22 22 21 21 20 20 20 20 20 20 19 18 18 18 18 18 20 20 21 21 18 18 18 18 20 21 21 22 23 22 20
24 24 24 24 25 25 24 22 21 20 20 20 20 19 19 18 18 18 17 17 18 18 18 18 19 20 20 19 18 18 18 19 19 20 21 22 23 24

GFSNE_sfc_30mbdewp_087.txt.gz
Dewpoint
52 51 50 49 49 50 50 51 49 45 44 45 45 43 42 42 43 43 43 46 47 47 48 48 47 48 48 49 49 49 49 48 48 48 47 46 46 46
49 49 48 47 47 48 49 48 48 47 44 44 41 40 40 40 41 41 41 41 44 45 44 44 45 45 45 46 46 46 46 46 46 46 45 45 44 44
46 46 45 45 45 45 46 45 45 45 44 40 40 39 39 38 39 40 39 39 39 42 42 43 43 42 42 42 43 43 43 42 42 42 42 43 43 43
42 43 42 42 42 42 42 42 42 42 43 40 39 38 37 37 37 38 37 37 37 35 38 39 39 39 40 40 39 39 39 38 37 37 37 37 37 37
41 41 40 40 40 40 40 40 40 40 40 40 37 37 36 36 36 35 33 34 28 28 30 33 35 36 36 36 35 34 34 34 34 35 36 36 36 36
38 38 38 38 38 38 37 37 38 38 39 38 36 35 34 33 32 29 30 28 27 25 26 25 26 26 27 29 31 33 34 34 34 33 33 34 34 34
37 37 36 35 35 34 35 33 34 34 35 36 34 33 30 27 26 24 24 23 25 24 23 21 22 22 23 22 24 26 28 29 29 30 31 32 32 33
34 34 35 35 34 33 32 31 29 28 29 31 29 23 22 22 23 24 25 24 23 25 23 21 22 21 23 25 29 30 30 30 30 30 31 32 30 32
32 30 26 28 26 28 28 29 28 27 26 22 20 21 20 24 27 27 25 25 22 23 22 21 21 21 24 23 27 28 29 31 31 32 32 32 31 30
27 26 25 24 24 21 22 26 26 26 26 22 23 23 25 25 25 27 25 24 24 23 24 23 24 23 25 24 25 26 31 32 31 30 30 31 31 31
23 24 24 25 28 22 24 24 22 25 28 28 28 27 27 28 28 26 27 25 25 21 25 24 26 24 25 24 25 31 30 30 29 29 29 29 30 30
23 24 27 25 27 24 19 19 19 20 22 22 23 24 25 28 28 25 26 27 26 25 25 25 25 25 25 25 26 26 26 26 26 27 28 29 29 29
16 19 22 24 23 26 21 20 22 23 25 20 20 21 22 24 24 24 25 27 24 24 26 26 23 23 23 23 25 26 27 27 27 27 28 28 29 29
16 15 17 25 23 23 25 24 28 25 19 19 20 21 22 24 26 26 26 27 26 25 27 28 24 24 23 21 22 25 26 27 28 27 27 28 28 28
17 17 20 25 25 23 24 23 26 27 20 19 21 23 25 28 27 26 27 26 26 26 25 27 26 25 25 24 22 23 23 25 26 26 26 27 27 28
22 22 24 23 20 21 19 22 26 24 20 21 23 24 27 27 25 24 24 24 24 24 26 27 26 25 24 24 23 23 23 23 25 26 27 26 26 27
23 21 22 20 17 18 19 19 22 21 20 21 22 24 24 25 24 23 23 23 23 22 23 26 27 27 25 24 22 22 23 24 26 25 25 24 25 26
21 19 19 17 13 12 13 15 17 18 20 22 24 25 24 24 24 23 22 23 22 22 22 24 25 25 23 23 25 23 24 24 25 24 24 24 24 25
22 21 21 20 19 17 14 15 18 19 22 24 25 25 25 25 23 23 23 21 21 20 22 24 24 22 19 18 21 27 25 25 24 23 24 24 24 24
25 25 24 23 23 21 20 20 21 22 22 24 24 24 24 24 23 23 22 21 21 21 21 22 22 22 19 18 20 21 25 24 23 23 23 24 25 25
26 27 26 25 25 24 23 23 23 24 23 23 23 23 24 24 23 23 22 21 21 21 20 20 21 23 25 25 21 18 20 22 23 22 22 22 21 21
24 25 26 26 26 25 25 25 25 24 23 24 23 23 23 23 23 22 21 21 20 20 20 21 22 22 22 20 17 17 18 20 21 23 23 24 22 19
24 24 24 25 26 26 26 25 25 24 24 23 23 23 23 22 22 21 21 20 20 19 20 20 20 21 21 20 19 19 19 18 19 20 21 22 23 25

GFSNE_sfc_30mbdewp_090.txt.gz
Dewpoint
52 52 52 50 50 50 52 51 49 45 45 44 42 42 42 42 43 42 43 46 47 47 47 47 48 48 49 50 51 51 51 50 50 49 48 48 47 47
50 50 49 48 48 49 49 49 49 47 44 43 40 40 40 40 41 40 41 41 44 45 45 46 45 45 46 47 47 47 47 47 47 46 46 46 46 46
47 47 46 46 46 46 46 46 46 45 44 40 40 39 38 38 39 40 39 39 40 42 43 42 42 42 43 43 43 44 44 43 43 43 43 43 44 44
43 43 42 43 42 42 42 42 42 42 43 40 38 37 37 37 37 37 37 36 32 36 39 39 39 39 40 40 40 40 39 39 38 38 38 38 38 39
41 41 41 41 40 40 40 40 39 40 40 40 37 37 36 36 36 35 34 31 27 29 31 33 35 36 37 37 36 35 35 35 35 36 37 37 37 37
38 38 37 39 38 37 37 37 38 38 38 38 37 35 34 33 32 29 29 27 25 25 26 26 27 27 28 29 33 33 34 34 35 33 33 33 34 34
37 37 35 36 36 36 35 33 34 35 36 36 35 33 30 27 26 24 24 24 25 24 23 22 22 22 24 27 28 29 28 29 29 30 31 32 32 33
35 35 36 35 34 34 33 32 31 31 30 31 30 28 22 23 24 24 23 23 22 24 21 20 21 21 24 28 29 30 30 30 30 30 30 31 31 31
32 30 30 29 29 28 30 29 27 28 26 23 21 21 22 25 24 26 25 24 22 23 23 21 22 22 24 26 28 27 29 31 31 32 32 33 31 30
29 26 24 24 23 23 26 26 27 28 28 27 24 26 25 25 26 26 24 24 25 24 24 22 25 24 25 25 27 29 32 32 32 31 31 30 30 30
25 24 25 27 23 24 25 24 25 27 28 29 29 27 28 28 28 27 26 25 24 22 25 24 25 25 25 25 26 31 30 30 30 30 30 30 29 30
22 24 27 28 29 22 23 22 20 21 21 22 23 23 27 28 27 25 26 25 25 24 24 23 23 24 22 25 26 26 26 27 26 26 27 29 29 29
22 24 26 25 25 25 22 20 21 25 25 20 20 21 23 24 24 24 26 25 23 23 27 23 23 23 23 22 23 24 25 26 26 27 28 28 28 29
17 16 18 24 23 25 23 26 26 24 20 20 20 21 22 24 25 26 26 26 26 24 26 26 22 23 22 21 20 23 23 23 24 25 26 27 27 28
17 18 23 25 26 23 25 23 27 26 21 19 20 21 23 26 25 25 25 26 25 24 25 24 24 22 23 22 21 22 22 24 24 25 26 26 25 26
21 20 22 26 24 25 23 23 25 27 23 19 20 24 26 25 24 24 24 23 23 24 26 27 25 24 21 22 24 22 22 22 23 25 25 25 26 26
27 23 23 22 20 19 19 19 21 25 23 20 20 23 25 25 24 24 23 22 23 22 22 24 27 26 25 25 23 23 22 22 23 24 26 24 25 25
25 21 20 20 18 16 17 18 19 21 21 20 22 23 23 24 24 23 22 21 21 21 21 23 24 25 24 23 24 23 22 22 22 25 24 24 24 24
21 20 19 20 19 16 14 15 16 18 20 20 21 23 24 24 25 23 22 21 21 21 21 23 23 22 19 17 18 21 24 23 24 24 24 23 23 24
23 23 22 22 21 20 18 16 16 19 20 21 22 24 25 24 24 23 22 21 21 20 20 20 22 22 20 17 17 19 24 25 24 23 22 23 24 24
25 25 25 25 24 23 22 21 20 20 21 22 23 23 24 24 23 23 23 23 22 21 20 19 20 21 23 24 20 19 20 22 22 22 21 21 21 21
25 25 26 27 26 25 25 24 23 23 24 24 23 23 23 24 23 23 23 22 21 20 20 19 19 20 21 20 18 17 17 19 20 20 21 22 23 19
25 24 25 27 27 27 27 25 25 24 24 24 23 23 23 23 23 22 22 22 21 20 19 19 20 21 21 21 19 19 19 19 20 19 20 22 22 23

GFSNE_sfc_30mbdewp_093.txt.gz
Dewpoint
52 53 53 51 51 52 53 52 51 48 48 43 41 42 42 42 43 42 44 46 46 47 47 48 48 49 50 51 52 52 52 51 51 50 49 49 48 47
50 50 49 49 49 49 49 49 49 47 44 43 40 40 41 41 41 41 41 42 45 46 46 45 45 45 46 48 48 48 48 48 48 48 47 47 47 47
47 48 48 47 47 47 46 47 46 47 45 40 40 39 38 38 39 39 39 38 41 43 43 43 43 43 43 43 44 45 45 45 44 44 44 44 44 44
43 44 43 44 43 43 44 43 43 43 44 40 38 38 37 37 37 37 37 36 34 39 39 40 39 40 41 40 40 40 40 39 39 39 39 39 40 41
41 41 41 41 40 40 40 40 40 41 41 40 37 37 36 36 35 35 34 28 28 30 31 33 34 38 38 37 37 37 37 36 37 38 38 38 38 38
39 38 39 40 39 38 38 38 38 39 39 38 37 36 34 34 31 32 28 27 25 24 26 27 28 28 28 32 33 32 34 34 35 34 34 34 34 34
37 36 36 37 37 37 36 35 36 37 37 35 35 32 30 28 27 25 24 25 24 24 22 22 21 23 26 29 29 29 28 28 29 30 31 32 32 32
36 36 36 35 36 35 34 33 34 34 34 34 31 31 24 23 24 24 23 23 22 24 20 20 22 22 25 27 28 29 30 31 29 29 30 31 32 31
35 33 31 31 30 31 30 30 30 29 29 27 26 23 22 25 24 24 23 23 22 23 22 21 23 23 25 26 28 27 28 31 31 32 33 33 31 30
30 27 27 24 25 25 26 26 27 28 26 23 24 24 24 25 25 25 24 23 24 24 24 22 25 24 25 25 29 30 32 32 32 32 31 31 31 31
26 26 25 24 25 27 27 26 26 28 31 30 30 29 30 29 26 26 25 25 23 22 25 23 25 24 25 26 26 30 31 30 30 30 30 30 30 29
23 26 28 28 24 25 24 24 22 23 23 23 23 27 29 29 27 26 25 24 24 24 24 22 23 23 20 24 25 26 26 28 29 27 28 28 29 29
22 23 26 28 29 23 23 21 21 22 24 22 21 23 24 24 24 26 26 24 22 23 27 22 21 21 22 21 22 23 25 25 25 25 28 28 28 28
19 21 25 25 25 26 24 27 26 26 22 20 20 21 22 24 24 25 26 25 25 23 25 24 21 22 21 20 20 22 22 23 24 24 26 26 26 28
18 18 21 25 25 24 26 26 27 23 20 20 20 21 23 24 25 25 24 24 23 24 24 24 23 21 21 21 21 22 22 22 23 24 25 25 26 25
24 21 24 26 26 26 25 26 25 27 23 20 20 21 25 24 24 23 22 23 23 23 25 27 25 24 22 20 21 21 22 21 22 22 23 25 25 25
25 21 22 23 24 22 23 21 23 26 27 22 21 22 25 25 24 23 23 22 22 21 21 22 26 26 24 23 22 23 22 22 22 22 23 25 26 25
29 24 22 22 22 20 18 19 19 20 24 24 20 21 24 24 24 24 23 22 21 21 21 21 22 24 25 24 26 23 22 22 22 22 23 24 23 24
28 24 22 21 21 20 18 17 18 19 21 23 21 20 22 23 25 24 23 22 21 20 20 21 21 21 19 17 18 21 23 23 23 24 24 24 23 23
25 23 22 22 21 20 20 18 17 17 18 19 20 21 22 23 23 24 23 22 21 20 20 20 20 20 20 17 16 17 22 22 23 21 21 21 22 23
23 24 24 23 23 23 22 22 20 18 19 20 21 22 23 23 23 24 23 23 22 21 20 20 20 22 21 21 20 19 21 22 22 20 20 21 20 20
24 24 24 25 25 25 25 24 23 23 23 22 22 22 23 23 22 22 22 21 21 21 21 20 19 19 20 21 19 19 19 19 20 20 21 21 21 18
26 25 25 25 26 27 27 26 25 25 24 24 23 23 23 22 22 22 22 22 21 20 20 19 19 19 20 20 20 20 19 19 20 20 21 22 22 22

GFSNE_sfc_30mbdewp_096.txt.gz
Dewpoint
52 52 52 52 52 53 54 54 52 49 47 42 41 42 42 42 43 42 43 46 47 47 47 47 48 48 50 51 53 53 54 54 53 52 51 50 49 48
50 50 50 50 49 49 50 51 50 50 47 43 41 41 41 41 41 41 41 43 45 46 45 45 45 45 47 48 49 49 50 50 50 49 48 48 47 47
48 47 48 48 48 48 48 48 48 48 45 40 40 39 39 39 40 39 39 38 41 43 43 42 42 43 43 43 44 45 45 46 46 46 45 44 44 44
44 45 45 44 45 44 45 44 45 44 44 40 38 38 37 38 38 37 37 32 36 39 40 40 40 41 41 41 41 40 40 40 41 41 41 41 42 42
42 42 42 42 41 41 41 41 41 42 42 40 38 38 36 36 35 35 31 28 26 29 29 30 36 38 38 39 38 38 37 38 39 39 40 39 39 39
40 40 40 41 40 39 39 39 38 39 40 39 37 36 34 35 33 32 29 26 24 24 27 29 30 30 30 35 32 33 34 36 35 35 34 34 34 35
37 37 37 39 39 38 37 37 37 38 38 37 36 33 31 31 28 28 26 25 24 23 22 22 21 24 28 30 30 29 28 28 30 30 31 32 32 32
36 37 37 37 38 37 35 34 36 36 36 34 32 32 28 26 25 24 24 23 21 24 19 21 22 23 24 26 28 29 30 31 29 29 29 30 32 32
36 35 32 33 32 31 33 33 33 33 34 33 32 30 24 24 25 23 23 22 22 23 22 20 24 23 25 26 28 28 28 31 31 32 33 34 32 31
34 32 29 26 26 27 25 25 27 25 24 24 26 24 24 26 25 25 23 23 23 25 23 22 25 23 25 25 31 31 32 30 32 32 32 31 31 31
29 26 25 23 25 28 26 25 28 29 31 30 28 28 28 29 27 25 23 23 23 22 24 23 24 24 24 26 26 31 31 31 30 30 30 31 30 30
24 26 29 26 26 28 26 25 23 26 26 25 28 29 30 30 30 26 25 24 23 22 24 22 23 22 22 24 25 26 26 30 30 29 30 29 29 28
22 23 26 30 29 24 26 24 22 24 23 20 22 25 25 25 25 26 25 23 22 23 26 22 20 21 21 21 22 23 24 23 23 24 27 28 28 28
21 23 25 28 28 27 25 23 25 25 24 21 21 22 23 23 24 25 25 24 23 23 26 21 20 21 19 19 20 22 22 22 23 22 23 26 26 27
19 20 23 27 27 26 26 27 28 24 21 20 20 21 23 24 24 25 24 23 22 24 24 24 21 19 21 20 19 21 21 22 22 22 25 25 24 25
24 25 24 26 28 26 25 26 27 24 21 20 20 21 23 23 24 23 23 22 22 22 25 24 23 22 22 22 21 20 20 20 21 21 22 23 24 26
27 25 25 25 25 25 25 25 24 26 27 23 20 21 23 24 24 22 22 22 21 20 20 22 26 25 24 22 21 21 21 22 23 22 22 21 23 25
29 23 20 21 21 23 21 21 21 23 25 26 23 21 22 24 24 23 22 22 21 21 21 21 21 23 24 25 26 23 22 22 22 22 22 21 23 24
29 28 26 23 22 22 21 20 19 20 22 23 24 22 21 23 25 23 23 23 22 21 21 20 20 20 18 17 19 24 23 22 22 22 23 23 23 22
27 28 27 25 23 22 21 20 20 20 20 21 22 23 22 21 22 24 24 23 23 22 20 19 20 19 19 17 15 18 24 20 21 20 20 22 22 22
24 25 26 25 24 23 23 22 21 20 19 19 20 20 21 21 22 23 24 24 23 21 20 20 20 22 20 20 19 19 20 22 22 20 19 20 20 20
23 23 24 25 25 24 24 24 23 23 23 22 20 21 22 22 21 22 23 22 22 23 21 21 20 19 20 21 20 19 19 20 22 21 22 22 19 17
29 27 25 25 26 26 26 26 25 24 24 24 24 23 23 22 22 22 22 22 20 20 20 19 19 18 19 19 20 19 19 20 20 20 20 22 22 23

GFSNE_sfc_30mbdewp_099.txt.gz
Dewpoint
52 51 51 52 52 52 53 54 53 49 46 43 42 43 43 42 43 42 43 47 47 47 46 46 47 49 49 51 53 54 57 57 56 55 54 52 51 50
50 50 49 50 50 50 50 51 51 51 48 43 41 41 42 42 42 41 41 43 45 45 44 44 45 45 46 47 49 51 51 52 52 52 51 50 48 47
48 47 47 48 48 48 48 48 48 48 46 40 40 40 40 40 40 39 38 39 42 44 43 42 43 43 43 44 45 45 47 47 47 47 47 46 46 46
43 44 45 44 45 44 45 45 45 46 44 40 38 38 38 39 39 38 35 34 36 40 39 41 41 41 41 40 40 40 41 42 42 43 43 44 43 43
41 42 42 42 42 41 41 42 42 43 43 40 38 38 37 36 35 35 29 27 26 29 31 34 39 39 40 40 39 39 40 40 41 41 40 40 40 41
39 40 40 41 41 39 39 39 39 40 41 39 38 37 35 35 34 32 27 25 24 24 28 31 32 32 35 33 33 33 35 36 37 36 35 35 35 35
38 37 38 39 40 39 38 38 38 38 39 38 37 35 33 33 32 30 27 24 23 22 22 22 22 25 28 29 30 30 28 30 31 31 32 32 32 32
37 37 38 38 38 39 38 37 37 37 37 36 35 35 32 31 27 27 25 24 22 24 19 21 22 23 23 25 28 29 30 31 29 29 29 30 32 32
36 36 33 34 33 33 35 34 35 36 36 35 34 33 30 27 26 25 24 23 22 23 21 19 24 23 25 26 30 29 28 31 31 32 33 34 32 31
35 34 31 29 29 27 27 27 27 26 25 28 32 30 26 26 26 25 24 23 24 24 23 20 25 23 25 25 31 32 32 30 32 32 33 32 32 32
31 28 29 26 25 29 24 25 28 29 31 29 28 28 29 28 27 24 22 21 21 22 24 23 24 24 24 25 26 31 31 31 31 30 31 31 31 31
26 25 29 25 26 28 26 25 25 27 27 29 30 30 30 30 28 24 24 20 22 21 24 22 23 22 22 24 25 25 25 31 31 29 30 29 29 29
24 24 26 31 29 27 29 26 24 26 28 25 26 27 27 26 26 26 25 24 22 23 25 21 20 21 20 22 22 23 24 23 23 24 27 29 29 28
20 21 23 27 31 29 26 27 27 26 23 20 21 23 24 23 25 25 25 24 23 23 27 21 20 20 18 19 19 22 22 22 23 22 22 26 27 27
21 21 24 27 28 28 27 27 26 26 23 21 21 22 23 24 25 25 24 23 23 26 25 22 21 19 20 19 19 21 21 22 22 21 23 24 23 24
26 23 25 25 28 28 27 27 28 25 23 21 21 22 23 24 24 24 23 22 22 22 24 23 21 20 20 21 20 20 20 19 20 21 22 22 23 23
26 25 23 24 25 27 27 25 25 27 25 22 21 21 22 24 24 23 22 21 21 20 21 22 26 24 22 21 21 21 21 20 21 22 22 21 21 22
29 24 22 22 24 25 24 23 23 24 26 27 24 21 21 22 23 22 22 22 21 20 20 20 21 22 23 24 25 22 21 22 22 23 22 20 22 23
30 29 26 23 21 21 22 21 21 22 23 25 25 24 23 22 24 23 23 22 21 21 21 20 20 20 18 16 19 26 23 21 22 22 22 22 22 23
27 28 28 28 26 24 23 22 22 21 21 22 23 23 23 23 22 23 23 23 23 23 21 20 20 19 19 16 14 17 25 21 21 21 20 21 22 23
26 26 28 28 27 26 25 24 23 22 21 21 21 22 22 22 22 22 23 23 23 23 21 21 20 22 20 19 19 19 19 24 21 19 18 19 19 20
24 24 25 26 26 26 25 25 24 23 23 22 21 21 21 21 21 22 22 22 23 24 22 22 20 20 20 21 19 19 19 20 22 24 24 22 18 16
31 30 28 27 26 26 26 25 25 25 24 24 24 23 22 21 21 21 21 22 22 22 23 22 20 18 19 20 21 20 20 20 20 20 20 22 23 23

GFSNE_sfc_30mbdewp_102.txt.gz
Dewpoint
50 51 51 51 51 51 52 52 51 46 47 44 43 43 43 43 44 43 44 47 47 46 46 46 47 48 49 51 53 57 58 57 57 56 55 55 54 52
49 49 49 49 49 49 50 50 51 50 47 44 42 42 43 42 43 41 42 44 45 45 44 45 45 45 46 48 49 52 53 55 56 55 54 52 51 49
46 47 47 47 47 47 48 48 48 48 47 41 40 41 41 41 40 39 38 41 44 44 44 44 43 43 44 44 45 47 48 50 51 51 51 50 49 48
41 43 43 44 44 44 44 45 45 46 45 42 39 39 39 40 39 38 32 34 37 39 41 42 42 42 42 41 41 43 43 44 45 46 46 46 47 46
40 41 41 41 42 41 41 41 42 43 44 41 38 38 37 37 36 34 30 27 27 31 34 38 40 41 40 39 40 40 41 42 42 43 43 43 43 43
39 39 39 40 40 40 39 39 39 40 42 41 39 37 36 36 35 33 28 26 24 25 28 32 34 36 35 34 33 35 37 38 38 38 37 37 37 38
37 37 37 39 40 40 39 38 38 38 39 39 38 36 34 34 34 32 27 25 23 22 23 22 23 25 28 30 30 30 31 33 34 34 33 33 32 32
37 37 37 37 37 40 39 39 38 37 37 37 36 36 34 33 31 30 27 24 24 24 20 21 22 23 24 26 29 29 30 30 29 29 30 31 33 32
37 36 34 34 33 34 34 34 34 35 38 36 36 35 34 32 29 27 25 24 22 23 20 19 23 23 25 27 31 30 29 31 32 32 33 33 32 32
36 36 33 31 30 28 27 28 28 29 26 30 33 34 31 29 28 28 26 24 24 24 23 17 24 23 25 26 32 32 29 32 32 34 33 33 33 33
33 31 30 29 28 30 24 24 26 28 31 30 29 29 29 29 27 25 23 22 20 21 24 23 24 24 24 25 27 31 30 31 32 32 32 31 31 32
29 26 31 28 26 28 27 24 23 26 28 30 30 30 30 30 29 25 25 20 21 20 24 22 23 22 21 24 25 25 27 32 31 29 30 29 31 29
27 25 25 30 31 29 31 26 24 26 28 28 27 27 27 27 26 26 26 23 21 22 25 22 21 21 20 22 22 23 24 24 24 24 27 29 29 29
21 20 21 26 30 31 27 29 28 27 24 23 24 25 25 24 25 25 25 24 24 23 27 22 20 20 19 19 19 22 22 22 22 22 22 26 28 28
23 22 24 26 27 30 29 28 27 26 23 21 20 22 24 24 25 25 25 24 25 27 24 21 21 18 19 18 18 20 21 21 23 21 21 23 24 24
30 27 24 25 27 28 28 28 27 26 24 22 21 23 24 24 24 24 23 22 21 22 24 23 21 21 20 20 19 19 20 19 20 22 22 22 23 24
27 25 23 23 24 26 27 26 26 27 26 23 22 21 22 23 24 23 22 21 21 20 21 23 25 22 21 21 21 21 21 20 20 21 22 21 22 22
29 26 24 22 22 24 25 26 25 25 26 26 23 22 22 22 22 22 22 22 22 21 20 20 22 23 23 23 24 22 21 20 21 23 23 20 21 23
29 28 26 24 22 23 24 24 23 23 24 25 26 25 22 21 23 22 22 22 22 22 21 20 20 20 18 16 18 26 22 21 22 22 22 21 21 21
28 28 29 28 26 25 24 23 23 22 22 22 24 24 24 23 22 23 22 22 22 22 21 21 21 20 19 18 15 17 26 22 21 21 21 22 22 23
27 27 27 28 28 27 27 26 25 24 23 22 22 22 22 22 22 22 23 23 23 23 22 21 21 23 21 20 19 19 19 25 22 20 17 18 18 20
28 28 27 27 27 27 27 26 25 25 25 24 23 22 22 22 21 21 22 22 23 24 22 23 21 22 20 20 19 19 19 20 23 25 23 20 18 14
32 31 30 30 30 29 28 26 25 25 25 25 25 23 23 22 22 21 22 22 22 22 24 23 21 19 21 21 21 20 20 20 20 20 21 23 26 26

GFSNE_sfc_30mbdewp_105.txt.gz
Dewpoint
50 51 51 51 52 52 53 52 49 44 46 47 46 45 44 45 45 44 45 48 47 46 46 46 46 47 49 50 52 56 57 56 58 58 58 57 56 55
49 49 49 49 49 49 50 50 51 48 45 46 44 43 43 43 44 42 43 45 45 45 44 45 45 45 46 47 49 52 56 57 57 57 56 56 54 51
45 46 47 47 47 48 48 48 49 49 46 42 42 42 42 42 41 40 41 43 45 44 44 44 44 43 44 45 46 48 51 53 56 55 54 52 51 49
41 42 43 44 44 45 45 45 46 46 46 44 40 40 40 41 40 37 36 34 39 41 43 43 43 43 42 43 44 46 47 49 50 51 51 51 50 48
40 41 41 42 42 42 42 42 42 42 44 43 40 39 39 39 37 33 31 28 30 35 38 40 42 40 39 40 41 42 43 44 45 46 47 47 46 46
39 40 40 40 40 41 41 40 40 39 41 42 40 38 37 37 36 33 30 27 27 27 31 35 37 36 35 34 35 38 39 40 41 41 40 41 42 42
38 38 38 39 40 41 40 39 39 38 39 40 38 37 35 34 35 34 30 27 25 25 24 23 26 26 28 30 31 31 34 36 36 36 36 35 36 37
38 38 37 37 37 39 39 39 39 38 38 38 38 37 36 35 33 32 28 26 27 25 23 22 23 24 25 29 29 30 31 30 32 32 32 32 33 35
37 37 35 34 33 34 34 34 34 35 38 37 37 37 36 34 33 31 29 28 26 24 21 22 23 23 26 28 32 29 30 31 31 31 32 32 33 33
36 36 35 32 31 30 28 29 29 30 30 30 35 35 35 33 34 33 30 26 25 24 23 22 24 23 25 27 32 32 29 32 33 34 34 34 33 33
34 32 32 31 29 31 26 24 26 28 32 31 30 31 31 32 30 29 28 27 24 23 24 24 25 24 25 26 29 31 32 33 33 33 33 33 33 33
30 28 31 32 28 29 29 24 22 25 30 30 30 30 31 31 29 27 28 26 24 22 25 25 24 25 24 25 27 28 30 31 31 31 31 32 33 31
29 28 26 29 32 30 31 27 24 26 29 28 28 28 28 27 26 26 27 26 24 25 26 26 25 24 24 25 25 26 27 27 28 28 30 30 32 30
27 24 22 25 28 32 30 30 29 28 26 25 25 27 26 26 27 27 27 27 27 26 28 26 24 24 23 23 23 24 25 25 26 27 27 27 29 29
24 22 23 25 27 29 32 29 28 27 24 22 21 24 26 27 27 27 27 27 29 29 27 25 25 23 24 22 21 22 24 25 26 26 25 26 27 27
32 30 27 25 27 28 29 29 28 27 25 24 23 24 26 26 26 26 25 25 24 25 27 25 25 24 23 23 23 22 23 23 24 25 25 25 25 25
29 26 25 24 24 25 27 27 27 28 27 25 24 24 23 24 25 26 25 24 24 23 23 25 25 24 24 24 22 22 22 23 24 24 23 23 24 24
29 27 26 24 23 22 24 26 26 26 27 27 25 24 24 24 24 25 25 24 24 24 23 23 25 25 24 24 25 23 23 23 24 24 24 23 22 23
30 28 27 26 25 24 24 24 25 25 27 27 27 26 25 24 24 24 24 24 23 24 24 23 23 22 19 17 20 26 23 23 23 23 23 23 22 23
30 29 28 28 27 26 25 25 25 25 24 25 25 26 26 25 24 24 24 23 23 23 23 23 23 22 21 19 19 21 27 25 23 23 22 23 23 24
30 28 29 28 29 28 28 27 27 26 25 25 25 25 25 25 24 24 24 24 23 23 22 23 24 24 24 23 21 20 21 26 25 24 23 21 20 19
29 31 31 29 29 29 29 28 27 27 27 26 25 25 25 24 23 23 23 23 23 25 23 24 25 25 23 22 21 21 21 21 25 26 24 21 21 17
32 31 31 31 31 31 30 29 28 28 27 27 27 26 25 24 23 23 22 22 22 23 24 24 24 24 23 22 22 22 21 21 20 21 23 26 26 24

GFSNE_sfc_30mbdewp_108.txt.gz
Dewpoint
53 52 51 51 52 52 51 51 48 43 42 47 48 48 47 47 46 45 47 48 47 47 47 46 46 46 47 49 50 53 57 56 55 57 57 58 58 57
49 49 49 50 50 50 50 49 49 47 44 48 48 47 46 44 45 43 44 45 46 45 45 45 45 45 45 47 49 51 55 56 57 57 58 58 58 57
46 46 46 47 47 47 48 48 48 47 46 46 45 44 44 44 43 41 43 44 46 45 45 44 44 43 44 45 48 49 52 55 57 58 57 57 55 52
42 43 43 44 45 46 46 46 46 47 47 45 43 42 42 43 41 38 37 36 40 44 43 44 43 42 43 43 45 47 49 50 52 55 54 52 51 50
41 41 42 43 43 44 44 44 44 43 44 44 42 41 40 40 38 34 32 31 34 36 40 42 41 40 40 40 42 44 45 47 48 49 51 51 50 49
40 41 41 41 42 42 42 42 41 40 40 41 42 40 39 38 37 34 32 30 30 29 35 38 38 36 35 35 37 39 40 42 43 44 44 45 47 47
40 39 40 40 40 41 40 40 40 39 38 39 40 38 37 35 36 35 33 30 27 27 27 28 32 29 28 29 31 33 36 38 38 38 39 40 41 41
39 39 39 38 38 40 39 39 40 39 39 39 39 37 37 37 36 34 31 29 29 27 27 26 23 24 25 28 30 31 31 33 34 34 34 34 37 38
39 39 37 36 35 37 36 34 34 34 36 39 37 38 37 36 35 33 31 30 30 27 26 26 24 24 27 31 32 29 30 31 31 32 32 33 34 36
37 37 37 35 33 32 31 32 31 31 33 29 35 36 36 35 35 35 33 29 26 24 25 25 25 23 25 27 33 32 30 32 33 34 33 33 34 33
35 36 35 33 31 33 29 27 25 28 33 34 32 32 33 34 35 33 31 30 30 28 25 24 24 24 25 26 31 33 31 32 34 34 35 35 35 33
33 32 33 32 31 32 32 27 23 23 29 30 30 31 32 32 31 32 34 34 30 26 25 26 25 26 26 26 30 31 32 32 33 33 33 33 34 32
32 30 28 30 33 31 29 28 26 25 29 28 27 28 29 28 27 27 29 34 31 30 27 29 29 26 29 26 27 30 31 31 31 32 31 31 33 31
31 30 28 28 29 32 31 30 29 28 26 25 25 26 26 27 28 29 29 29 30 30 29 30 29 29 28 26 25 27 28 29 30 31 31 30 31 32
29 23 22 24 26 27 32 31 30 28 24 23 23 25 28 30 30 29 29 30 31 31 30 28 30 29 29 29 26 25 27 27 28 29 29 29 29 29
33 30 29 27 26 25 29 31 29 27 25 25 24 24 28 29 28 29 28 28 28 28 29 28 29 28 27 27 26 25 26 26 28 28 28 28 27 26
34 31 30 27 25 23 25 26 27 28 27 26 27 25 25 26 27 28 28 28 28 27 26 27 26 27 27 27 25 25 24 25 27 27 26 26 27 26
31 28 27 27 26 23 21 23 25 25 26 28 28 28 26 26 27 27 28 27 27 27 26 27 26 25 25 25 26 25 24 25 27 26 26 24 25 26
31 30 28 28 27 26 25 24 26 26 29 30 30 30 29 29 27 27 26 26 26 26 27 27 26 24 22 19 23 27 26 25 25 24 24 24 23 25
33 32 31 30 28 27 28 28 28 28 28 29 29 30 29 29 28 27 27 26 25 25 26 27 26 25 23 22 23 25 27 27 25 24 25 24 25 25
32 32 32 32 30 30 30 30 30 30 30 29 29 29 29 29 28 28 27 26 26 25 25 25 27 27 28 27 23 21 23 27 28 26 26 23 22 21
32 31 31 32 33 33 32 32 31 31 31 30 29 29 29 29 27 26 26 26 26 26 26 26 29 28 27 24 22 21 22 24 26 27 26 24 24 21
33 32 32 32 32 32 32 31 31 31 31 31 31 30 29 28 27 27 26 25 25 25 25 26 26 27 26 25 23 23 22 23 22 22 26 27 26 24

GFSNE_sfc_30mbdewp_111.txt.gz
Dewpoint
56 55 53 52 52 52 52 51 50 45 42 48 49 49 48 48 47 46 48 49 48 47 47 46 46 46 46 47 49 51 53 57 58 58 58 57 58 58
51 51 50 50 50 51 51 50 50 48 45 47 49 48 47 45 45 44 45 45 46 46 45 45 45 44 45 46 48 50 51 56 56 56 57 56 58 58
47 47 48 48 48 48 48 48 48 48 46 46 47 45 46 45 43 42 43 44 46 46 45 45 44 43 43 44 46 48 50 53 56 56 56 58 59 59
44 44 45 45 46 46 46 46 47 46 47 44 46 44 43 44 42 39 37 36 42 45 45 44 43 42 42 42 44 46 48 50 55 57 58 58 56 54
42 42 42 43 44 45 45 45 45 43 43 44 44 42 41 41 37 35 34 34 35 37 40 43 41 39 39 40 41 43 45 47 49 51 53 53 53 52
41 41 41 41 42 43 43 43 42 41 41 40 40 41 40 40 38 36 33 32 32 30 37 40 38 36 35 35 37 39 42 44 46 47 49 49 51 51
41 41 41 40 40 41 40 41 40 39 38 39 39 40 38 37 37 36 35 32 30 29 29 29 34 30 28 29 32 34 37 39 40 42 44 44 45 46
40 40 40 38 39 40 40 39 39 40 38 39 39 38 38 37 37 36 33 31 32 29 28 28 25 27 27 30 30 31 33 35 36 36 37 39 41 42
40 40 39 37 37 39 37 35 35 35 36 38 38 38 38 37 37 35 33 32 32 28 28 30 25 25 28 32 35 30 31 31 33 33 34 36 40 40
38 38 38 36 36 34 34 33 32 31 34 32 32 37 36 36 36 35 34 31 26 25 26 27 26 25 26 30 33 32 31 32 33 33 33 34 36 35
36 37 37 36 34 35 32 31 28 28 33 35 33 32 35 36 36 33 31 30 29 27 26 26 25 25 26 27 32 33 32 32 35 35 34 34 34 34
34 34 34 34 33 34 33 31 27 25 28 30 31 32 34 34 34 34 35 33 32 28 28 27 25 26 25 28 31 32 34 34 34 34 34 35 35 33
33 32 31 35 35 32 31 30 28 25 28 29 27 29 30 30 29 29 31 36 32 31 28 31 29 27 31 26 28 31 32 32 32 33 32 33 34 32
33 32 31 32 32 33 32 31 29 28 26 26 26 27 27 28 29 30 30 31 32 32 29 31 29 29 29 27 26 29 30 31 32 32 32 32 32 33
34 28 25 27 27 28 31 33 31 29 26 24 24 26 30 32 31 30 30 30 30 31 30 28 30 30 30 30 27 26 27 29 30 31 32 31 30 31
35 30 27 26 25 26 27 33 31 29 27 26 25 27 31 30 29 30 29 30 30 29 29 28 29 29 27 28 28 27 28 27 30 30 30 30 29 29
35 33 31 29 27 25 25 26 29 29 28 27 27 27 27 28 28 30 29 29 28 28 27 28 27 28 28 28 26 27 27 27 28 29 28 28 29 28
33 31 30 29 28 26 23 24 26 27 27 28 29 29 27 27 28 28 28 28 27 28 28 28 27 25 26 26 27 26 26 27 28 28 27 26 27 29
33 31 29 29 28 28 26 24 25 27 28 29 30 30 30 30 28 28 28 28 27 28 29 29 27 25 22 18 27 28 27 27 28 27 27 26 25 27
33 32 31 30 30 29 28 28 28 29 29 30 30 31 30 29 29 28 28 27 26 27 27 29 27 26 23 22 23 26 28 28 26 26 26 26 27 27
34 33 33 33 32 31 31 31 31 31 30 30 29 30 30 29 28 28 28 27 27 27 26 26 28 28 28 27 23 22 24 28 29 26 26 25 24 23
34 33 33 33 33 34 33 33 33 32 31 31 30 30 30 30 28 28 28 27 26 26 27 27 28 28 27 25 23 22 22 25 28 28 29 26 23 18
33 32 32 32 33 32 32 32 32 32 32 32 31 31 31 30 29 29 28 27 26 26 26 27 28 28 26 26 24 24 24 24 25 25 27 28 27 27

GFSNE_sfc_30mbdewp_114.txt.gz
Dewpoint
58 57 55 55 54 53 52 51 49 45 44 49 48 48 48 47 47 46 47 49 48 47 46 46 46 45 46 45 46 48 50 51 54 58 57 57 56 58
56 55 52 51 51 51 51 51 50 48 45 48 47 47 46 46 45 44 44 46 47 46 46 45 45 44 44 44 45 47 50 51 55 58 58 56 56 58
52 50 49 49 49 50 49 49 48 49 46 46 47 45 45 44 43 42 43 44 46 46 45 45 44 43 43 43 44 47 49 51 56 56 56 58 57 57
47 47 47 47 47 47 46 47 47 46 46 44 46 44 43 43 42 40 38 38 43 45 46 45 43 41 41 41 42 45 47 50 53 57 56 56 56 57
44 43 44 44 44 45 45 45 45 44 44 43 43 43 42 41 38 36 35 35 36 38 40 42 41 39 38 39 40 42 45 48 50 51 54 57 57 56
42 42 42 42 42 44 44 43 43 42 41 40 39 42 41 40 39 37 35 33 34 31 36 40 38 34 32 33 36 38 42 45 47 49 50 52 53 53
41 41 41 40 41 42 41 41 41 40 39 39 38 40 39 38 37 38 36 34 32 32 32 30 33 31 29 32 32 35 38 40 43 46 47 48 49 49
40 40 40 39 40 41 40 40 40 39 38 37 37 37 37 38 38 37 35 33 35 31 29 29 25 27 29 32 31 31 34 36 37 41 44 45 46 45
40 39 39 38 38 39 39 37 37 37 37 38 37 36 38 38 37 36 34 33 33 30 29 30 26 25 27 33 35 32 31 33 34 35 39 44 43 43
40 39 38 36 36 36 34 34 33 32 34 33 32 35 37 36 37 36 35 33 28 27 28 28 26 25 26 29 32 32 31 32 33 33 35 39 39 39
37 38 37 36 36 35 33 31 30 29 33 35 34 33 34 37 37 35 33 31 31 28 26 27 26 25 26 27 31 34 32 33 35 34 35 36 35 36
35 35 36 35 35 36 33 31 29 27 27 28 30 31 34 35 37 35 33 32 33 30 28 25 25 25 21 27 30 31 33 34 35 35 36 35 35 34
34 33 33 36 35 35 35 32 29 26 27 29 28 29 31 29 28 29 32 34 34 31 28 28 26 26 29 26 27 30 32 31 32 33 34 34 35 34
33 33 32 33 35 35 33 32 31 28 26 27 26 27 27 27 28 29 30 31 33 31 30 29 27 25 26 25 23 29 29 31 31 31 31 32 34 34
34 31 32 33 33 32 32 33 32 29 27 25 24 25 28 30 30 29 29 29 29 30 29 29 29 30 29 26 26 26 27 28 30 31 31 31 30 31
35 30 25 25 25 25 27 29 32 30 28 25 24 26 29 28 28 28 27 29 28 26 28 28 28 28 26 28 27 25 27 24 29 29 31 31 30 30
35 32 30 29 27 26 25 27 31 31 29 27 26 26 28 28 28 28 28 28 26 27 25 27 28 28 28 28 24 26 26 27 28 28 29 28 29 29
35 33 32 31 29 28 25 25 26 29 29 28 27 27 26 26 27 28 27 27 25 26 27 27 26 24 25 24 27 24 25 27 27 28 28 26 26 27
34 33 32 31 30 29 28 24 24 26 27 27 28 27 27 26 27 27 26 26 26 27 28 28 26 23 18 14 25 28 24 26 27 27 27 26 24 25
34 32 31 30 30 29 29 26 25 26 27 27 28 28 29 29 28 27 27 26 26 26 27 29 27 25 21 18 21 26 29 26 26 26 26 27 27 27
33 33 32 31 31 30 29 28 28 28 28 28 28 28 29 29 28 27 27 28 27 26 25 26 28 28 26 26 24 23 25 29 27 25 25 25 24 24
34 34 33 33 34 33 32 31 31 31 31 30 29 28 28 28 28 27 27 27 26 26 26 26 26 27 27 26 24 23 22 24 28 29 28 26 23 18
34 34 33 33 34 34 34 33 32 32 32 31 31 30 30 29 29 29 28 27 27 26 26 26 26 27 26 26 25 24 24 24 24 24 26 29 29 29

GFSNE_sfc_30mbdewp_117.txt.gz
Dewpoint
61 60 58 56 55 54 53 51 47 41 43 49 48 47 47 47 46 46 47 49 48 47 47 46 46 45 45 45 45 45 47 49 50 52 54 57 58 55
58 57 56 55 54 53 52 51 50 48 44 47 47 46 45 45 45 44 44 46 47 47 46 45 45 44 44 43 43 45 47 50 51 54 57 58 56 56
56 56 53 51 51 50 50 50 49 49 47 46 46 45 45 44 43 42 42 43 46 47 46 45 44 43 42 42 42 44 47 49 51 55 57 57 57 57
53 52 49 49 48 48 48 48 47 47 46 44 45 44 44 43 42 41 39 38 43 44 46 45 43 41 40 40 41 42 45 47 50 53 56 56 58 56
48 48 47 47 46 46 45 45 45 45 44 43 42 43 42 41 39 37 36 36 36 38 40 43 41 38 36 36 38 39 43 45 49 51 55 56 56 56
45 44 44 44 43 44 44 44 43 42 41 41 40 41 41 40 39 39 37 34 35 33 35 39 40 34 33 34 34 37 39 42 47 50 50 52 55 55
42 42 42 42 43 43 42 42 41 40 40 39 39 40 39 38 37 38 37 36 34 34 33 32 32 32 31 31 32 33 36 40 43 47 49 50 50 53
40 40 40 40 41 42 41 41 40 39 38 37 37 37 36 37 38 37 36 35 36 32 31 31 27 28 28 31 35 32 33 36 39 44 47 47 48 49
39 39 38 39 40 40 40 39 38 38 38 38 37 36 36 37 38 36 35 34 34 32 30 30 26 26 27 31 33 34 31 33 35 38 45 45 45 46
40 39 38 37 38 38 36 34 33 33 33 33 34 36 38 37 37 36 36 34 30 28 29 28 27 25 26 28 32 33 31 32 34 34 40 41 42 43
39 39 37 36 37 37 34 33 32 30 34 35 34 34 34 34 37 36 34 32 32 31 27 27 27 25 25 26 29 34 32 34 34 33 37 37 39 39
37 37 38 36 38 37 33 32 30 28 28 28 28 30 34 35 38 35 33 33 32 30 29 26 25 24 18 26 29 31 32 34 35 36 36 35 36 34
35 34 36 37 37 37 35 33 31 28 28 28 28 29 31 29 28 29 33 34 33 32 28 26 25 26 27 26 27 30 31 31 32 32 35 36 35 34
34 33 33 37 36 36 35 34 32 28 27 27 26 26 27 27 28 28 29 30 32 33 30 27 25 24 25 25 22 28 29 30 31 31 31 33 35 34
34 33 33 35 36 36 36 34 32 28 25 25 25 25 27 28 28 28 27 28 28 29 29 29 27 29 27 24 26 27 27 29 30 30 31 30 31 32
34 33 34 33 32 30 30 31 32 30 27 26 24 25 28 27 27 26 24 26 25 25 27 27 28 27 27 28 27 25 26 24 28 29 31 31 31 30
34 30 27 26 25 25 25 28 31 31 30 27 26 27 28 27 26 27 27 26 25 25 24 26 28 28 28 27 24 25 26 27 28 28 29 28 29 30
34 32 31 30 29 27 26 24 25 30 30 28 26 26 26 26 26 27 26 26 24 24 27 26 25 23 23 23 27 24 25 26 27 28 28 26 25 27
35 33 33 32 31 30 29 27 25 25 28 28 27 26 25 25 26 26 26 26 25 25 26 27 25 22 18 15 20 28 23 25 26 27 27 27 24 24
35 34 33 33 32 31 30 29 27 24 25 25 25 26 26 26 26 26 26 26 25 24 25 27 26 24 22 19 20 26 29 25 25 25 25 27 27 28
34 34 33 32 31 31 30 29 28 25 25 25 25 26 27 27 28 28 27 28 27 25 25 25 27 28 24 25 24 23 24 29 27 25 24 24 24 24
34 34 33 33 33 32 31 30 29 29 29 27 26 26 27 27 28 27 27 26 26 26 26 26 25 26 26 26 24 23 23 24 26 30 28 25 22 17
34 34 34 34 34 34 34 33 32 32 32 30 30 29 29 28 28 28 28 27 27 27 26 26 26 25 26 26 26 25 24 24 24 23 25 29 29 29

GFSNE_sfc_30mbdewp_120.txt.gz
Dewpoint
60 60 60 60 59 56 54 53 50 45 45 49 48 48 47 47 46 46 46 48 49 47 47 46 46 46 45 45 44 44 45 47 50 49 51 54 56 55
60 60 58 57 56 55 54 52 49 44 40 47 47 46 46 45 45 44 44 45 46 48 47 46 45 45 44 43 43 43 44 47 50 51 53 56 57 57
58 58 57 56 54 53 52 51 50 48 45 45 45 45 44 44 43 42 42 42 44 46 47 46 45 43 42 41 41 42 43 47 49 50 53 57 57 57
57 57 55 53 52 50 50 49 48 48 47 45 44 43 43 43 42 41 40 38 41 43 44 46 43 42 39 38 38 39 41 45 48 49 53 56 56 57
56 54 51 50 48 48 47 47 46 46 45 44 43 42 41 41 39 38 37 37 37 38 41 42 42 39 36 36 35 37 39 43 46 49 52 56 57 57
50 50 50 48 47 46 45 45 44 44 43 42 41 41 40 40 39 38 37 36 36 36 35 38 41 39 34 34 33 34 37 41 44 48 50 53 54 55
45 45 45 44 45 45 44 43 43 42 41 40 39 39 38 38 37 37 37 36 36 35 34 34 33 34 30 31 34 34 34 38 42 47 48 50 53 54
42 42 42 43 43 44 43 42 41 40 39 38 37 37 37 37 37 37 36 36 36 33 32 32 29 29 28 31 34 34 32 36 38 45 46 47 49 53
41 40 39 41 42 41 42 41 41 40 39 37 36 36 36 37 37 37 36 35 35 33 31 31 27 26 27 28 33 34 31 33 36 40 45 45 47 50
40 39 38 39 39 39 37 35 34 34 35 35 36 37 37 38 37 37 36 35 33 30 30 30 28 26 26 27 31 35 32 33 34 38 41 43 45 47
40 39 38 38 40 38 35 33 32 31 35 35 34 33 33 34 36 36 34 33 33 32 28 28 27 26 25 26 28 34 35 35 35 37 37 40 40 42
39 39 38 37 40 38 34 33 32 30 29 30 28 31 33 35 37 36 34 33 33 31 30 27 25 24 18 25 28 30 31 36 36 36 36 37 36 35
37 37 38 38 39 38 34 32 32 29 29 27 27 29 30 29 30 31 33 33 33 32 29 26 24 26 25 25 26 29 30 31 31 33 35 36 35 34
35 35 36 39 39 38 36 35 34 29 28 27 26 26 28 27 27 28 29 30 32 33 31 27 24 23 23 22 21 27 29 30 30 31 31 34 35 35
35 34 34 38 37 37 37 36 33 27 26 26 25 25 26 26 27 27 27 28 28 28 30 29 26 26 24 21 24 26 26 29 29 30 30 30 31 32
35 35 35 36 37 35 36 35 32 28 25 24 24 25 29 28 27 25 23 25 23 24 27 26 27 27 25 26 26 25 26 22 27 29 30 30 31 30
34 33 33 31 31 29 28 29 31 31 29 27 25 25 26 27 27 26 25 24 23 23 23 25 27 27 27 25 23 25 26 26 27 27 29 28 29 30
32 29 28 26 25 24 23 24 28 31 30 28 26 25 26 26 25 25 25 25 23 23 25 24 24 22 21 23 27 24 25 24 26 28 28 25 24 26
35 33 31 30 29 29 27 26 25 26 29 29 27 25 25 25 26 25 25 25 24 24 25 25 24 21 18 14 21 28 23 24 25 26 27 27 24 24
36 34 33 33 33 32 31 30 28 26 25 27 27 26 25 25 24 25 24 25 24 24 24 25 25 24 23 20 19 26 29 25 24 23 24 27 27 28
36 34 34 34 34 33 33 31 29 26 24 24 24 25 24 25 26 25 25 27 26 24 24 23 25 27 24 25 24 23 24 28 27 24 24 23 22 24
35 35 34 34 34 33 32 31 29 28 27 24 24 24 24 25 27 26 25 26 26 26 25 25 24 25 26 26 24 23 23 24 25 29 29 26 21 15
34 34 34 34 33 33 32 31 30 29 29 28 27 26 25 26 27 26 26 26 26 25 25 25 25 24 25 26 26 25 25 25 25 24 25 28 30 30

GFSNE_sfc_30mbdewp_126.txt.gz
Dewpoint
60 59 59 58 58 58 56 55 53 50 50 50 49 49 49 49 47 46 45 47 48 48 48 47 47 46 46 45 44 44 43 43 44 47 50 51 52 54
59 59 59 59 58 58 58 56 55 54 51 50 48 47 48 46 46 44 44 44 45 47 48 48 46 45 44 43 42 41 40 41 43 47 50 51 54 56
59 59 59 59 59 58 57 57 55 54 52 46 46 45 46 45 44 43 42 42 42 45 46 46 47 44 43 41 41 39 37 38 42 47 50 52 55 57
58 58 58 58 57 57 56 55 54 52 49 47 44 44 45 44 43 42 41 39 39 41 44 45 45 43 41 40 39 38 36 37 42 46 49 52 54 58
58 57 57 56 55 54 53 52 52 50 49 45 43 43 42 42 41 39 38 38 37 39 41 43 44 43 40 39 37 37 36 36 41 46 48 51 55 55
58 57 57 56 55 53 53 52 50 48 46 44 43 42 41 40 39 38 37 36 37 37 37 38 40 41 39 36 35 36 35 35 40 45 48 50 53 53
56 56 56 56 55 53 52 50 48 46 44 43 41 40 39 38 38 37 37 36 36 35 35 35 35 34 32 30 34 36 34 34 38 44 47 50 53 53
52 51 50 50 51 50 50 49 47 46 43 41 39 39 38 38 37 37 36 36 35 33 33 33 31 31 30 28 34 36 34 34 37 43 46 49 52 52
49 48 47 48 48 47 47 46 45 43 42 40 39 38 37 38 37 36 36 36 36 35 33 33 29 29 28 27 32 35 34 35 37 41 45 47 51 52
47 46 46 45 44 43 42 41 40 40 39 39 38 38 37 37 37 37 36 36 35 34 32 34 29 28 27 27 31 35 36 36 38 40 42 44 47 49
43 43 43 42 43 42 40 39 37 35 37 38 38 38 39 39 38 36 35 35 34 34 30 31 29 27 26 25 27 33 36 37 37 39 39 42 43 45
41 41 43 41 43 41 38 36 35 34 34 34 35 35 35 38 39 36 35 34 34 33 32 30 26 25 27 25 26 28 30 35 37 38 37 38 41 41
40 39 41 42 43 42 39 38 36 33 34 30 29 30 31 33 35 36 35 35 34 33 30 29 26 25 24 24 24 27 29 30 31 32 35 36 37 39
39 40 40 42 42 42 40 38 37 33 32 28 27 28 28 29 30 31 32 32 32 33 31 29 27 24 19 17 16 25 28 28 29 30 30 33 35 36
39 40 40 40 41 42 39 38 37 31 29 28 27 27 28 28 29 28 29 29 29 29 30 29 27 22 22 20 20 24 24 27 28 29 30 30 31 32
38 39 40 40 41 40 39 38 35 30 29 28 27 26 27 27 27 27 25 25 23 24 26 28 28 27 26 25 22 22 23 21 25 28 29 30 30 30
37 36 37 37 37 37 37 37 34 32 29 27 26 26 27 27 27 25 24 24 20 20 22 25 26 26 24 24 21 22 23 25 24 26 28 27 28 30
37 35 35 35 35 35 35 34 33 32 30 28 26 26 26 26 26 25 25 23 20 21 22 23 23 22 20 21 26 23 23 23 24 27 27 24 22 24
38 36 35 34 34 35 34 34 33 33 32 30 27 26 26 25 26 24 24 23 22 21 21 23 20 19 16 12 22 27 22 23 24 25 26 26 23 23
39 36 35 34 33 33 33 32 32 31 32 31 29 26 25 24 25 24 24 23 23 21 22 22 24 22 20 15 18 26 27 23 23 22 23 26 26 28
37 37 36 34 33 32 31 31 31 30 31 30 29 28 26 24 24 24 24 24 24 21 22 22 24 26 21 23 23 23 23 28 26 23 23 23 21 22
36 36 36 35 33 32 32 32 31 31 30 30 29 28 27 25 25 24 24 25 25 24 23 22 23 25 25 24 21 22 23 24 26 29 28 25 19 11
35 35 35 34 33 32 32 32 31 31 31 30 28 27 26 25 25 26 26 26 26 24 23 23 23 25 25 25 24 24 24 24 25 25 25 28 30 30

GFSNE_sfc_30mbdewp_129.txt.gz
Dewpoint
59 59 59 59 59 58 57 56 54 52 51 52 51 51 51 50 50 48 47 48 49 48 48 47 47 46 46 45 45 44 43 42 42 43 48 51 51 54
59 59 59 59 59 59 58 57 56 55 53 53 51 49 49 49 48 46 45 45 46 47 48 48 47 46 44 44 43 43 41 40 41 43 49 52 53 54
59 59 59 59 58 58 58 58 57 57 54 51 48 47 47 46 46 45 44 44 44 45 46 46 46 46 43 42 42 41 40 39 39 43 49 52 54 54
58 58 58 58 58 58 58 57 57 56 55 52 45 44 46 46 46 44 42 40 41 41 44 45 46 44 42 41 40 39 39 38 38 44 49 51 55 56
57 58 57 57 57 57 56 56 55 53 51 48 44 43 43 43 42 41 40 40 38 39 41 43 45 44 42 40 38 38 38 37 38 44 48 50 53 55
58 58 57 57 56 55 54 54 52 50 49 47 44 43 43 41 41 41 39 38 38 37 38 38 40 42 41 37 35 36 36 36 37 45 47 49 52 53
57 57 57 57 57 56 55 53 51 49 47 45 43 41 40 39 40 40 39 37 37 37 37 37 37 37 35 32 33 37 36 35 38 44 47 49 52 52
56 55 55 55 55 54 55 54 52 49 46 45 42 42 40 40 38 38 37 37 36 36 35 35 33 34 32 30 33 36 35 35 38 43 46 49 52 52
51 50 50 49 49 50 50 49 48 48 46 45 43 42 41 39 38 37 37 37 37 35 35 35 31 31 29 28 33 35 36 36 39 42 45 46 51 52
49 48 48 47 46 46 45 44 43 42 43 43 42 41 40 40 39 38 37 37 36 34 34 36 31 30 29 28 31 35 37 37 39 40 43 44 48 50
47 47 47 46 45 45 43 41 39 38 41 41 41 41 40 40 38 37 36 36 35 35 32 34 31 30 27 26 27 33 37 38 38 38 40 44 44 47
43 43 44 44 45 44 42 41 39 38 37 38 39 40 40 40 39 38 36 36 35 34 33 33 29 28 29 26 28 29 32 35 37 38 38 41 43 43
41 41 41 43 45 43 41 40 39 37 37 36 35 34 35 38 38 36 36 36 35 34 32 32 29 27 27 27 26 29 30 32 33 34 37 38 41 41
40 40 40 42 43 43 41 40 40 38 36 33 31 30 31 33 34 34 34 34 34 34 33 30 29 29 27 21 21 26 30 31 32 33 34 35 36 39
40 40 40 41 43 43 42 41 40 35 33 31 30 29 29 31 31 30 30 31 31 31 31 29 29 26 26 26 23 25 27 30 31 33 33 34 34 35
42 40 41 41 41 42 42 40 38 33 32 32 30 29 29 29 29 29 28 27 28 27 28 29 29 26 28 27 25 24 26 26 28 31 32 32 32 32
41 38 37 38 38 38 38 38 35 34 33 32 31 30 28 28 27 26 26 25 23 24 25 27 28 29 28 27 24 24 25 27 28 29 30 30 30 31
40 37 36 36 36 37 36 36 34 34 32 31 31 29 28 28 27 26 26 25 22 22 23 24 25 25 24 25 27 25 25 26 27 28 28 26 26 26
39 38 36 36 35 36 36 36 34 34 33 32 30 29 29 28 28 26 26 24 23 22 24 24 23 22 20 17 25 27 25 25 26 26 27 27 24 25
38 38 37 36 35 35 35 35 35 33 32 32 31 29 28 27 26 25 25 24 23 23 22 23 23 22 20 19 23 27 26 25 25 24 25 26 27 27
34 36 37 37 36 35 35 35 34 32 32 31 31 30 29 28 27 26 25 25 24 22 22 23 25 26 23 25 24 25 26 28 26 26 26 24 22 22
32 33 35 35 35 35 34 33 32 31 31 31 31 30 29 28 27 26 26 26 25 22 23 24 24 25 26 24 21 22 23 25 28 29 27 25 23 17
31 32 32 34 35 33 32 31 31 31 31 31 31 30 29 28 28 27 26 26 26 24 23 23 24 25 25 24 23 24 24 25 26 26 27 29 30 30

GFSNE_sfc_30mbdewp_132.txt.gz
Dewpoint
59 59 58 58 59 59 58 57 54 51 52 54 54 54 55 55 53 51 51 51 51 50 49 48 47 47 46 46 45 45 44 44 43 43 43 49 52 53
59 58 58 58 59 60 59 58 57 54 52 54 55 53 54 52 52 50 49 49 49 48 48 48 47 47 45 44 43 44 43 43 42 43 43 50 53 54
59 59 58 58 59 59 59 59 58 57 55 56 53 51 50 50 48 48 47 46 46 47 47 47 47 47 45 43 42 42 42 41 41 41 45 51 53 54
57 58 59 59 59 59 58 57 57 57 56 55 51 47 47 48 47 46 45 45 44 44 45 46 45 47 44 42 42 41 40 39 39 39 47 50 52 53
58 58 58 58 57 57 57 57 57 57 56 55 50 45 44 45 44 45 44 42 42 40 42 44 45 45 43 42 40 39 38 38 38 40 47 49 51 53
58 58 58 57 57 57 57 56 56 55 54 51 46 44 43 42 43 41 41 41 40 38 38 39 42 44 44 42 37 36 38 37 36 42 47 48 52 52
57 57 57 58 57 57 56 56 55 53 51 49 44 42 41 40 41 42 43 41 40 39 39 39 39 40 40 37 34 36 37 36 37 43 46 49 51 51
56 56 57 56 56 56 55 55 55 53 51 48 46 44 42 42 43 41 41 39 39 39 38 38 36 38 37 35 33 35 37 36 38 43 46 48 51 51
53 53 52 51 51 51 50 49 49 49 51 49 47 44 43 42 41 40 40 39 39 37 37 37 35 35 33 29 33 35 37 37 39 41 45 47 50 50
49 49 49 49 48 48 47 45 44 44 44 45 45 44 44 43 42 41 40 39 38 36 37 37 34 33 31 30 31 35 38 37 39 40 44 45 49 49
47 47 47 47 47 46 45 44 43 42 42 43 43 43 43 43 41 40 38 37 36 36 35 37 33 32 30 29 28 33 36 37 39 39 42 44 47 49
43 44 44 45 45 46 45 43 42 41 39 40 41 42 42 42 42 41 38 37 36 35 35 35 32 31 30 27 28 30 33 35 36 39 40 44 43 45
42 42 42 43 44 45 44 43 42 39 39 38 38 38 39 40 40 39 39 39 37 37 35 36 33 30 32 30 28 29 31 33 34 36 38 41 43 42
42 42 42 41 42 44 44 43 42 40 38 36 36 35 36 36 37 37 36 36 36 36 35 33 31 32 32 27 25 28 32 33 35 36 37 37 41 42
41 42 42 41 41 43 44 42 42 38 36 35 34 34 34 35 33 33 32 32 32 32 32 30 31 30 30 30 27 27 29 32 34 35 35 36 37 38
41 41 41 41 41 41 42 43 41 37 36 35 33 32 31 31 31 31 30 30 30 29 30 31 30 30 31 32 30 27 29 29 31 33 34 33 32 34
41 40 39 38 38 38 39 40 39 36 35 34 32 32 31 31 30 30 30 29 29 29 28 28 30 31 31 31 30 29 27 29 31 32 32 32 32 31
38 38 37 37 36 37 37 37 37 35 34 33 33 32 31 30 28 28 28 27 27 26 28 28 27 27 28 28 29 26 26 28 30 30 29 30 29 29
36 37 37 37 37 36 36 36 36 35 35 33 32 32 31 29 29 27 27 27 27 26 27 26 26 27 25 22 26 29 29 28 28 28 28 28 29 26
31 32 33 35 36 36 36 36 36 36 34 33 32 32 31 30 29 27 27 27 27 25 25 25 25 27 26 25 25 27 27 28 27 27 27 27 28 28
30 31 31 32 33 35 36 36 36 35 33 32 31 31 31 30 29 28 28 28 27 26 24 24 26 27 28 29 25 25 26 28 28 30 28 26 24 23
28 29 30 31 31 33 34 34 34 33 32 31 32 31 31 30 29 28 28 28 27 25 25 27 28 27 27 26 25 25 25 26 29 28 27 28 29 23
27 27 28 31 31 32 33 33 32 32 32 32 32 31 31 30 30 30 29 28 27 25 26 24 26 26 26 26 25 25 25 25 25 26 27 29 30 29